M I D A S
Marine Information and Data Acquisition System
Tripno 1817 of the Zeeleeuw from 2009-09-30 06:58:40 to 2009-09-30 13:44:59
Back to CruiseResearch ActivitiesStationsMapUnderway DataData graphs

EquipmentUnitsComment
TimeDGPSUTC
LatitudeDGPSDM.mWGS84
LongitudeDGPSDM.mWGS84
TemperatureSBE03/SBE38deg celciusITS90
ConductivitySBE21S/mITS90
SalinitySBE21 Practical Salinity Units
ChlorophylAChelsea fluorimeterg/lCalibrated in Aceton
Missing or incorrect values are displayed as -999
Sea surface data collected by the RV Zeeleeuw from 2009-09-30 06:32:28 to 2009-09-30 16:21:44
                                                                                    Next 1000 lines
Time Latitude Longitude Temperature Conductivity Salinity ChlorophylA
2009-09-30 06:32:38 51°13.661 2°55.959 17.3525 4.12244 31.368337 29.22671
2009-09-30 06:32:43 51°13.661 2°55.959 17.3517 4.122232 31.366576 29.191886
2009-09-30 06:32:48 51°13.661 2°55.96 17.3604 4.121921 31.365792 29.22671
2009-09-30 06:32:54 51°13.66 2°55.959 17.3536 4.121818 31.367386 29.22671
2009-09-30 06:32:59 51°13.659 2°55.959 17.3528 4.121818 31.367386 29.22671
2009-09-30 06:33:04 51°13.659 2°55.96 17.3477 4.12161 31.367482 29.22671
2009-09-30 06:33:09 51°13.659 2°55.96 17.3448 4.121403 31.366959 29.261534
2009-09-30 06:33:14 51°13.659 2°55.96 17.3514 4.121299 31.365459 29.261534
2009-09-30 06:33:19 51°13.66 2°55.96 17.3522 4.121403 31.365721 29.261534
2009-09-30 06:33:24 51°13.661 2°55.96 17.3497 4.121506 31.365364 29.296359
2009-09-30 06:33:29 51°13.661 2°55.96 17.3461 4.121506 31.365364 29.296359
2009-09-30 06:33:34 51°13.662 2°55.96 17.356 4.121506 31.365983 29.296359
2009-09-30 06:33:39 51°13.662 2°55.96 17.3563 4.121403 31.36634 29.331183
2009-09-30 06:33:44 51°13.662 2°55.96 17.3534 4.121299 31.367316 29.331183
2009-09-30 06:33:49 51°13.662 2°55.96 17.3532 4.121299 31.367935 29.331183
2009-09-30 06:33:54 51°13.663 2°55.96 17.3481 4.121299 31.367316 29.331183
2009-09-30 06:33:59 51°13.663 2°55.96 17.3485 4.121195 31.367054 29.331183
2009-09-30 06:34:04 51°13.663 2°55.96 17.346 4.121195 31.367054 29.331183
2009-09-30 06:34:09 51°13.664 2°55.96 17.3472 4.121195 31.366435 29.331183
2009-09-30 06:34:14 51°13.664 2°55.96 17.3446 4.121299 31.366078 29.366007
2009-09-30 06:34:19 51°13.664 2°55.96 17.3456 4.121403 31.36634 29.366007
2009-09-30 06:34:24 51°13.663 2°55.96 17.3459 4.121403 31.366959 29.366007
2009-09-30 06:34:29 51°13.663 2°55.96 17.3454 4.121403 31.366959 29.366007
2009-09-30 06:34:34 51°13.663 2°55.96 17.347 4.121403 31.368196 29.366007
2009-09-30 06:34:39 51°13.663 2°55.96 17.3468 4.121195 31.368292 29.366007
2009-09-30 06:34:43 51°13.663 2°55.96 17.3446 4.121195 31.36953 29.366007
2009-09-30 06:34:48 51°13.662 2°55.96 17.3466 4.121092 31.369269 29.366007
2009-09-30 06:34:54 51°13.663 2°55.96 17.344 4.120988 31.369007 29.400831
2009-09-30 06:34:59 51°13.663 2°55.96 17.3464 4.120988 31.369007 29.400831
2009-09-30 06:35:04 51°13.663 2°55.96 17.3499 4.120988 31.369007 29.366007
2009-09-30 06:35:09 51°13.663 2°55.96 17.3404 4.120988 31.369007 29.400831
2009-09-30 06:35:14 51°13.663 2°55.96 17.3471 4.120988 31.369626 29.400831
2009-09-30 06:35:19 51°13.663 2°55.96 17.3471 4.120988 31.369626 29.400831
2009-09-30 06:35:24 51°13.663 2°55.96 17.3465 4.120988 31.369626 29.400831
2009-09-30 06:35:28 51°13.663 2°55.96 17.3433 4.120988 31.369626 29.400831
2009-09-30 06:35:34 51°13.663 2°55.96 17.342 4.120884 31.369365 29.400831
2009-09-30 06:35:39 51°13.663 2°55.96 17.3423 4.120988 31.369626 29.400831
2009-09-30 06:35:44 51°13.663 2°55.96 17.3426 4.120988 31.370245 29.400831
2009-09-30 06:35:49 51°13.663 2°55.96 17.3428 4.120988 31.370864 29.400831
2009-09-30 06:35:54 51°13.663 2°55.96 17.3382 4.120988 31.370245 29.400831
2009-09-30 06:35:59 51°13.663 2°55.96 17.3372 4.121092 31.371745 29.400831
2009-09-30 06:36:04 51°13.663 2°55.96 17.3359 4.121092 31.371745 29.400831
2009-09-30 06:36:09 51°13.663 2°55.96 17.3412 4.120988 31.372103 29.400831
2009-09-30 06:36:14 51°13.663 2°55.96 17.3374 4.120988 31.372103 29.400831
2009-09-30 06:36:19 51°13.663 2°55.96 17.3375 4.120988 31.372722 29.435655
2009-09-30 06:36:24 51°13.663 2°55.96 17.3354 4.120988 31.37396 29.435655
2009-09-30 06:36:28 51°13.663 2°55.96 17.336 4.120988 31.37396 29.435655
2009-09-30 06:36:34 51°13.663 2°55.96 17.341 4.120884 31.374318 29.435655
2009-09-30 06:36:39 51°13.662 2°55.96 17.3393 4.120884 31.374937 29.435655
2009-09-30 06:36:44 51°13.662 2°55.96 17.3399 4.120884 31.374937 29.435655
2009-09-30 06:36:49 51°13.662 2°55.96 17.3398 4.12078 31.374676 29.435655
2009-09-30 06:36:54 51°13.662 2°55.96 17.3345 4.12078 31.375295 29.435655
2009-09-30 06:36:59 51°13.662 2°55.96 17.3375 4.12078 31.375295 29.435655
2009-09-30 06:37:04 51°13.662 2°55.96 17.3396 4.120677 31.375653 29.435655
2009-09-30 06:37:09 51°13.662 2°55.96 17.3366 4.12078 31.375295 29.435655
2009-09-30 06:37:14 51°13.661 2°55.96 17.3348 4.12078 31.375295 29.435655
2009-09-30 06:37:19 51°13.661 2°55.96 17.3367 4.120884 31.375557 29.435655
2009-09-30 06:37:24 51°13.661 2°55.96 17.3379 4.120884 31.376176 29.435655
2009-09-30 06:37:29 51°13.66 2°55.96 17.3391 4.120884 31.376795 29.435655
2009-09-30 06:37:34 51°13.658 2°55.96 17.3304 4.120884 31.376795 29.435655
2009-09-30 06:37:39 51°13.66 2°55.96 17.3275 4.120884 31.376795 29.435655
2009-09-30 06:37:44 51°13.662 2°55.96 17.3288 4.120988 31.377676 29.400831
2009-09-30 06:37:48 51°13.661 2°55.96 17.3284 4.120988 31.378915 29.435655
2009-09-30 06:37:54 51°13.66 2°55.96 17.3326 4.121092 31.379177 29.435655
2009-09-30 06:37:59 51°13.66 2°55.96 17.3312 4.121092 31.379177 29.435655
2009-09-30 06:38:04 51°13.66 2°55.96 17.3346 4.121195 31.380057 29.435655
2009-09-30 06:38:09 51°13.661 2°55.96 17.3303 4.121195 31.381296 29.435655
2009-09-30 06:38:14 51°13.663 2°55.96 17.3259 4.121195 31.383775 29.435655
2009-09-30 06:38:19 51°13.664 2°55.96 17.3318 4.121299 31.386515 29.435655
2009-09-30 06:38:24 51°13.665 2°55.96 17.3288 4.121403 31.388016 29.400831
2009-09-30 06:38:29 51°13.666 2°55.96 17.3303 4.121403 31.388016 29.400831
2009-09-30 06:38:34 51°13.666 2°55.96 17.3304 4.121403 31.387396 29.435655
2009-09-30 06:38:39 51°13.666 2°55.96 17.3301 4.12161 31.388538 29.435655
2009-09-30 06:38:44 51°13.665 2°55.96 17.3329 4.121714 31.390039 29.435655
2009-09-30 06:38:49 51°13.664 2°55.96 17.3339 4.12161 31.390398 29.435655
2009-09-30 06:38:54 51°13.663 2°55.96 17.3346 4.121714 31.391279 29.435655
2009-09-30 06:38:59 51°13.663 2°55.96 17.334 4.121714 31.391279 29.435655
2009-09-30 06:39:04 51°13.662 2°55.96 17.3303 4.121714 31.391899 29.400831
2009-09-30 06:39:09 51°13.662 2°55.96 17.3304 4.121714 31.391279 29.400831
2009-09-30 06:39:14 51°13.661 2°55.96 17.336 4.121714 31.391899 29.400831
2009-09-30 06:39:19 51°13.661 2°55.96 17.3345 4.121714 31.391279 29.400831
2009-09-30 06:39:24 51°13.66 2°55.96 17.3332 4.121818 31.39092 29.400831
2009-09-30 06:39:28 51°13.66 2°55.96 17.3324 4.121922 31.391181 29.400831
2009-09-30 06:39:34 51°13.66 2°55.96 17.3351 4.121922 31.391181 29.400831
2009-09-30 06:39:39 51°13.661 2°55.96 17.3318 4.121922 31.391801 29.400831
2009-09-30 06:39:44 51°13.661 2°55.96 17.3295 4.122025 31.393302 29.366007
2009-09-30 06:39:49 51°13.661 2°55.96 17.3278 4.122129 31.393563 29.400831
2009-09-30 06:39:54 51°13.662 2°55.96 17.3313 4.122233 31.393825 29.400831
2009-09-30 06:39:59 51°13.662 2°55.96 17.3308 4.122233 31.393825 29.400831
2009-09-30 06:40:04 51°13.661 2°55.96 17.3316 4.122337 31.394706 29.366007
2009-09-30 06:40:09 51°13.661 2°55.96 17.3295 4.122337 31.395326 29.366007
2009-09-30 06:40:14 51°13.661 2°55.96 17.326 4.122337 31.395945 29.400831
2009-09-30 06:40:19 51°13.66 2°55.96 17.3252 4.122233 31.395684 29.400831
2009-09-30 06:40:24 51°13.66 2°55.96 17.3195 4.122233 31.396304 29.400831
2009-09-30 06:40:28 51°13.66 2°55.96 17.3199 4.122233 31.396304 29.400831
2009-09-30 06:40:34 51°13.66 2°55.96 17.3197 4.122233 31.396304 29.366007
2009-09-30 06:40:39 51°13.66 2°55.96 17.3216 4.122233 31.396304 29.400831
2009-09-30 06:40:44 51°13.66 2°55.96 17.3182 4.122337 31.397805 29.366007
2009-09-30 06:40:49 51°13.66 2°55.96 17.3186 4.122233 31.398164 29.400831
2009-09-30 06:40:54 51°13.661 2°55.96 17.3151 4.122129 31.399143 29.400831
2009-09-30 06:40:59 51°13.661 2°55.96 17.3151 4.122129 31.399143 29.400831
2009-09-30 06:41:04 51°13.661 2°55.96 17.3129 4.122026 31.400123 29.400831
2009-09-30 06:41:09 51°13.661 2°55.96 17.313 4.122026 31.401363 29.400831
2009-09-30 06:41:14 51°13.661 2°55.96 17.3134 4.121922 31.401722 29.400831
2009-09-30 06:41:19 51°13.662 2°55.96 17.3083 4.121922 31.402342 29.400831
2009-09-30 06:41:24 51°13.662 2°55.96 17.3107 4.121818 31.402702 29.400831
2009-09-30 06:41:29 51°13.662 2°55.96 17.3094 4.121611 31.40218 29.400831
2009-09-30 06:41:34 51°13.662 2°55.96 17.3112 4.121611 31.40218 29.400831
2009-09-30 06:41:39 51°13.662 2°55.96 17.312 4.121611 31.40218 29.400831
2009-09-30 06:41:44 51°13.662 2°55.96 17.3133 4.121507 31.402539 29.400831
2009-09-30 06:41:49 51°13.662 2°55.96 17.3131 4.1213 31.402017 29.366007
2009-09-30 06:41:54 51°13.662 2°55.96 17.3148 4.121196 31.401756 29.400831
2009-09-30 06:41:59 51°13.662 2°55.96 17.3137 4.121196 31.401756 29.400831
2009-09-30 06:42:04 51°13.662 2°55.96 17.3148 4.121092 31.401494 29.400831
2009-09-30 06:42:09 51°13.662 2°55.96 17.3134 4.120988 31.401233 29.400831
2009-09-30 06:42:14 51°13.662 2°55.96 17.3148 4.120988 31.400613 29.366007
2009-09-30 06:42:19 51°13.662 2°55.96 17.3156 4.120988 31.399993 29.366007
2009-09-30 06:42:24 51°13.662 2°55.96 17.315 4.120988 31.399372 29.400831
2009-09-30 06:42:29 51°13.662 2°55.96 17.3177 4.120988 31.399372 29.400831
2009-09-30 06:42:34 51°13.662 2°55.96 17.3155 4.121092 31.400254 29.366007
2009-09-30 06:42:39 51°13.662 2°55.96 17.3144 4.121092 31.400254 29.400831
2009-09-30 06:42:44 51°13.662 2°55.96 17.3135 4.121092 31.400254 29.366007
2009-09-30 06:42:48 51°13.662 2°55.96 17.3108 4.121092 31.399633 29.400831
2009-09-30 06:42:54 51°13.661 2°55.96 17.3103 4.121092 31.399633 29.400831
2009-09-30 06:42:59 51°13.662 2°55.96 17.3113 4.121092 31.399633 29.400831
2009-09-30 06:43:04 51°13.662 2°55.96 17.3113 4.121092 31.399633 29.400831
2009-09-30 06:43:09 51°13.662 2°55.96 17.309 4.121196 31.400515 29.366007
2009-09-30 06:43:14 51°13.661 2°55.96 17.309 4.121196 31.401135 29.400831
2009-09-30 06:43:19 51°13.661 2°55.96 17.3052 4.121092 31.400874 29.400831
2009-09-30 06:43:24 51°13.662 2°55.96 17.3042 4.120988 31.400613 29.400831
2009-09-30 06:43:29 51°13.662 2°55.96 17.3079 4.120988 31.400613 29.400831
2009-09-30 06:43:34 51°13.662 2°55.96 17.3085 4.120988 31.401233 29.400831
2009-09-30 06:43:39 51°13.662 2°55.96 17.3049 4.120885 31.400972 29.366007
2009-09-30 06:43:44 51°13.662 2°55.96 17.3076 4.120885 31.402213 29.366007
2009-09-30 06:43:49 51°13.662 2°55.96 17.3073 4.120781 31.401332 29.366007
2009-09-30 06:43:54 51°13.662 2°55.96 17.3047 4.120781 31.402573 29.366007
2009-09-30 06:43:59 51°13.662 2°55.96 17.3044 4.120781 31.402573 29.366007
2009-09-30 06:44:04 51°13.662 2°55.96 17.31 4.120677 31.401691 29.366007
2009-09-30 06:44:09 51°13.662 2°55.96 17.3074 4.120677 31.401691 29.366007
2009-09-30 06:44:14 51°13.662 2°55.959 17.3062 4.12047 31.401169 29.366007
2009-09-30 06:44:19 51°13.662 2°55.959 17.3059 4.120366 31.400287 29.366007
2009-09-30 06:44:24 51°13.662 2°55.959 17.3069 4.120262 31.398785 29.366007
2009-09-30 06:44:29 51°13.662 2°55.959 17.3076 4.120262 31.398785 29.366007
2009-09-30 06:44:34 51°13.662 2°55.96 17.3055 4.120262 31.399406 29.366007
2009-09-30 06:44:39 51°13.662 2°55.96 17.3058 4.120262 31.399406 29.400831
2009-09-30 06:44:44 51°13.662 2°55.959 17.3079 4.120366 31.400287 29.366007
2009-09-30 06:44:49 51°13.663 2°55.96 17.3057 4.120366 31.399667 29.366007
2009-09-30 06:44:54 51°13.663 2°55.959 17.3056 4.120366 31.400287 29.366007
2009-09-30 06:44:59 51°13.663 2°55.959 17.3032 4.120366 31.400287 29.366007
2009-09-30 06:45:04 51°13.662 2°55.959 17.3048 4.120366 31.400287 29.366007
2009-09-30 06:45:09 51°13.662 2°55.959 17.3026 4.12047 31.401169 29.366007
2009-09-30 06:45:14 51°13.662 2°55.959 17.3018 4.12047 31.401789 29.366007
2009-09-30 06:45:19 51°13.662 2°55.959 17.3021 4.120573 31.402051 29.366007
2009-09-30 06:45:24 51°13.662 2°55.959 17.3047 4.120781 31.403814 29.366007
2009-09-30 06:45:29 51°13.662 2°55.959 17.3013 4.120781 31.403814 29.366007
2009-09-30 06:45:34 51°13.662 2°55.959 17.2996 4.120885 31.404695 29.366007
2009-09-30 06:45:39 51°13.662 2°55.959 17.3033 4.120573 31.403292 29.366007
2009-09-30 06:45:44 51°13.662 2°55.959 17.3005 4.120677 31.404794 29.366007
2009-09-30 06:45:49 51°13.662 2°55.959 17.3007 4.120573 31.404533 29.366007
2009-09-30 06:45:54 51°13.662 2°55.959 17.3009 4.120781 31.406296 29.366007
2009-09-30 06:45:59 51°13.662 2°55.959 17.3022 4.120781 31.406296 29.366007
2009-09-30 06:46:04 51°13.663 2°55.959 17.3033 4.120781 31.406296 29.366007
2009-09-30 06:46:09 51°13.663 2°55.959 17.3014 4.12047 31.404272 29.366007
2009-09-30 06:46:14 51°13.663 2°55.959 17.3022 4.120885 31.40842 29.366007
2009-09-30 06:46:19 51°13.663 2°55.959 17.3003 4.120885 31.40842 29.366007
2009-09-30 06:46:24 51°13.663 2°55.959 17.3004 4.120885 31.40842 29.366007
2009-09-30 06:46:28 51°13.663 2°55.959 17.2991 4.120885 31.40842 29.366007
2009-09-30 06:46:34 51°13.663 2°55.959 17.2955 4.120988 31.409301 29.366007
2009-09-30 06:46:39 51°13.663 2°55.959 17.2949 4.120988 31.409301 29.366007
2009-09-30 06:46:44 51°13.663 2°55.959 17.2945 4.121092 31.409562 29.366007
2009-09-30 06:46:48 51°13.663 2°55.959 17.2954 4.120988 31.409301 29.331183
2009-09-30 06:46:54 51°13.663 2°55.959 17.2945 4.120574 31.405774 29.366007
2009-09-30 06:46:59 51°13.663 2°55.959 17.295 4.120574 31.405774 29.366007
2009-09-30 06:47:04 51°13.663 2°55.959 17.2952 4.11881 31.392026 29.331183
2009-09-30 06:47:09 51°13.663 2°55.959 17.2982 4.11715 31.379159 29.366007
2009-09-30 06:47:14 51°13.663 2°55.959 17.2978 4.115698 31.367436 29.331183
2009-09-30 06:47:19 51°13.663 2°55.958 17.2962 4.114349 31.356595 29.331183
2009-09-30 06:47:24 51°13.663 2°55.958 17.2977 4.113416 31.34928 29.331183
2009-09-30 06:47:29 51°13.663 2°55.958 17.2994 4.113416 31.34928 29.331183
2009-09-30 06:47:34 51°13.663 2°55.958 17.3019 4.11269 31.343728 29.331183
2009-09-30 06:47:39 51°13.663 2°55.958 17.3008 4.111548 31.334031 29.331183
2009-09-30 06:47:44 51°13.663 2°55.958 17.3022 4.110511 31.324596 29.331183
2009-09-30 06:47:48 51°13.663 2°55.958 17.3053 4.109992 31.320189 29.331183
2009-09-30 06:47:54 51°13.663 2°55.958 17.3038 4.109266 31.314018 29.331183
2009-09-30 06:47:59 51°13.663 2°55.958 17.3032 4.109266 31.314018 29.331183
2009-09-30 06:48:04 51°13.663 2°55.958 17.3026 4.108748 31.309611 29.331183
2009-09-30 06:48:09 51°13.663 2°55.958 17.303 4.108748 31.308374 29.331183
2009-09-30 06:48:14 51°13.663 2°55.959 17.3005 4.108955 31.308899 29.296359
2009-09-30 06:48:19 51°13.663 2°55.958 17.2989 4.10937 31.311805 29.296359
2009-09-30 06:48:24 51°13.663 2°55.958 17.3014 4.109681 31.313212 29.296359
2009-09-30 06:48:28 51°13.663 2°55.958 17.3 4.109992 31.315856 29.296359
2009-09-30 06:48:34 51°13.663 2°55.958 17.3031 4.109992 31.315856 29.296359
2009-09-30 06:48:39 51°13.663 2°55.958 17.3026 4.110096 31.316118 29.296359
2009-09-30 06:48:44 51°13.663 2°55.958 17.3022 4.110407 31.319381 29.296359
2009-09-30 06:48:49 51°13.663 2°55.958 17.303 4.110407 31.32 29.296359
2009-09-30 06:48:54 51°13.663 2°55.958 17.3038 4.110719 31.323263 29.296359
2009-09-30 06:48:59 51°13.663 2°55.958 17.3017 4.110719 31.323263 29.296359
2009-09-30 06:49:04 51°13.663 2°55.958 17.3033 4.110719 31.323263 29.296359
2009-09-30 06:49:09 51°13.663 2°55.958 17.3028 4.11103 31.325289 29.261534
2009-09-30 06:49:14 51°13.663 2°55.958 17.3055 4.111133 31.32617 29.296359
2009-09-30 06:49:19 51°13.663 2°55.958 17.3033 4.110926 31.323788 29.296359
2009-09-30 06:49:24 51°13.663 2°55.958 17.3067 4.111445 31.327576 29.261534
2009-09-30 06:49:29 51°13.663 2°55.958 17.3034 4.111445 31.327576 29.261534
2009-09-30 06:49:34 51°13.663 2°55.958 17.3043 4.111548 31.328457 29.261534
2009-09-30 06:49:39 51°13.663 2°55.958 17.3041 4.111652 31.329958 29.296359
2009-09-30 06:49:44 51°13.663 2°55.958 17.3075 4.111756 31.330839 29.296359
2009-09-30 06:49:49 51°13.663 2°55.958 17.3083 4.11186 31.331102 29.261534
2009-09-30 06:49:54 51°13.663 2°55.958 17.3055 4.111963 31.331983 29.261534
2009-09-30 06:49:59 51°13.663 2°55.958 17.309 4.112067 31.332245 29.261534
2009-09-30 06:50:04 51°13.663 2°55.958 17.3083 4.112067 31.332245 29.261534
2009-09-30 06:50:09 51°13.663 2°55.958 17.3087 4.112275 31.334008 29.261534
2009-09-30 06:50:14 51°13.663 2°55.958 17.3087 4.112378 31.334889 29.261534
2009-09-30 06:50:19 51°13.663 2°55.958 17.3096 4.112482 31.335152 29.261534
2009-09-30 06:50:24 51°13.663 2°55.958 17.3086 4.112793 31.337177 29.261534
2009-09-30 06:50:29 51°13.662 2°55.958 17.3085 4.112793 31.337177 29.261534
2009-09-30 06:50:34 51°13.662 2°55.958 17.3078 4.113001 31.338939 29.261534
2009-09-30 06:50:39 51°13.662 2°55.958 17.306 4.113312 31.340964 29.261534
2009-09-30 06:50:44 51°13.663 2°55.959 17.3063 4.113519 31.341488 29.261534
2009-09-30 06:50:49 51°13.663 2°55.959 17.3087 4.113831 31.344132 29.261534
2009-09-30 06:50:54 51°13.663 2°55.959 17.3109 4.114038 31.345895 29.261534
2009-09-30 06:50:59 51°13.662 2°55.958 17.3076 4.114038 31.345895 29.261534
2009-09-30 06:51:04 51°13.662 2°55.958 17.308 4.114245 31.347658 29.261534
2009-09-30 06:51:09 51°13.662 2°55.959 17.3097 4.114453 31.35004 29.261534
2009-09-30 06:51:14 51°13.662 2°55.959 17.3072 4.11466 31.351803 29.261534
2009-09-30 06:51:19 51°13.662 2°55.959 17.3131 4.114868 31.354186 29.261534
2009-09-30 06:51:24 51°13.662 2°55.959 17.3096 4.114972 31.354447 29.261534
2009-09-30 06:51:29 51°13.662 2°55.959 17.3079 4.114972 31.354447 29.261534
2009-09-30 06:51:34 51°13.662 2°55.959 17.3081 4.115075 31.355329 29.261534
2009-09-30 06:51:39 51°13.662 2°55.959 17.3079 4.115179 31.35621 29.261534
2009-09-30 06:51:44 51°13.662 2°55.959 17.3075 4.115387 31.357354 29.22671
2009-09-30 06:51:49 51°13.662 2°55.959 17.3087 4.11549 31.357615 29.22671
2009-09-30 06:51:54 51°13.662 2°55.959 17.3063 4.115698 31.359378 29.22671
2009-09-30 06:51:59 51°13.662 2°55.959 17.3043 4.115698 31.359378 29.22671
2009-09-30 06:52:04 51°13.662 2°55.959 17.303 4.115905 31.361141 29.22671
2009-09-30 06:52:09 51°13.662 2°55.959 17.3038 4.116113 31.363524 29.261534
2009-09-30 06:52:14 51°13.662 2°55.959 17.2997 4.11632 31.364667 29.22671
2009-09-30 06:52:19 51°13.662 2°55.959 17.2989 4.116424 31.366788 29.22671
2009-09-30 06:52:24 51°13.662 2°55.959 17.2985 4.116528 31.367669 29.22671
2009-09-30 06:52:29 51°13.662 2°55.959 17.2986 4.116528 31.367669 29.22671
2009-09-30 06:52:34 51°13.662 2°55.959 17.2995 4.116528 31.368289 29.22671
2009-09-30 06:52:39 51°13.662 2°55.959 17.2972 4.115698 31.361857 29.22671
2009-09-30 06:52:44 51°13.662 2°55.959 17.2973 4.114349 31.351017 29.261534
2009-09-30 06:52:49 51°13.662 2°55.959 17.2946 4.112897 31.340535 29.261534
2009-09-30 06:52:54 51°13.662 2°55.959 17.2966 4.111756 31.331459 29.22671
2009-09-30 06:52:59 51°13.662 2°55.959 17.2962 4.111756 31.331459 29.22671
2009-09-30 06:53:04 51°13.662 2°55.959 17.2982 4.110511 31.32212 29.22671
2009-09-30 06:53:09 51°13.663 2°55.959 17.2997 4.109889 31.316831 29.261534
2009-09-30 06:53:14 51°13.663 2°55.959 17.2985 4.109059 31.310399 29.22671
2009-09-30 06:53:19 51°13.662 2°55.959 17.2973 4.107918 31.301322 29.22671
2009-09-30 06:53:24 51°13.662 2°55.959 17.2975 4.106777 31.292246 29.22671
2009-09-30 06:53:29 51°13.662 2°55.959 17.2977 4.106154 31.286958 29.22671
2009-09-30 06:53:34 51°13.662 2°55.959 17.2967 4.106154 31.286958 29.22671
2009-09-30 06:53:39 51°13.662 2°55.959 17.2978 4.105947 31.285195 29.22671
2009-09-30 06:53:44 51°13.662 2°55.959 17.2972 4.105739 31.282814 29.22671
2009-09-30 06:53:49 51°13.662 2°55.959 17.2982 4.105532 31.280434 29.22671
2009-09-30 06:53:54 51°13.662 2°55.959 17.2967 4.104909 31.275764 29.22671
2009-09-30 06:53:59 51°13.662 2°55.959 17.2995 4.104909 31.275764 29.22671
2009-09-30 06:54:04 51°13.662 2°55.959 17.3018 4.104391 31.27074 29.22671
2009-09-30 06:54:09 51°13.662 2°55.959 17.2995 4.103561 31.264308 29.22671
2009-09-30 06:54:14 51°13.662 2°55.959 17.2964 4.102938 31.259021 29.22671
2009-09-30 06:54:19 51°13.662 2°55.959 17.2961 4.102316 31.254351 29.22671
2009-09-30 06:54:24 51°13.662 2°55.959 17.2947 4.101694 31.249064 29.22671
2009-09-30 06:54:29 51°13.662 2°55.96 17.2961 4.101694 31.249064 29.22671
2009-09-30 06:54:34 51°13.662 2°55.959 17.2979 4.101279 31.244922 29.22671
2009-09-30 06:54:39 51°13.663 2°55.959 17.296 4.100864 31.24078 29.22671
2009-09-30 06:54:44 51°13.663 2°55.96 17.296 4.099826 31.231969 29.22671
2009-09-30 06:54:49 51°13.663 2°55.96 17.2978 4.098478 31.221133 29.22671
2009-09-30 06:54:54 51°13.663 2°55.96 17.2956 4.096922 31.208535 29.22671
2009-09-30 06:54:59 51°13.663 2°55.96 17.2957 4.096922 31.208535 29.22671
2009-09-30 06:55:04 51°13.663 2°55.96 17.2947 4.095366 31.19532 29.22671
2009-09-30 06:55:09 51°13.663 2°55.96 17.2962 4.094017 31.183869 29.22671
2009-09-30 06:55:14 51°13.663 2°55.96 17.2947 4.092876 31.174795 29.22671
2009-09-30 06:55:19 51°13.663 2°55.96 17.2968 4.092461 31.171272 29.22671
2009-09-30 06:55:24 51°13.663 2°55.96 17.2967 4.091943 31.166868 29.22671
2009-09-30 06:55:29 51°13.663 2°55.96 17.2973 4.091113 31.159821 29.261534
2009-09-30 06:55:34 51°13.664 2°55.959 17.2978 4.091113 31.159821 29.261534
2009-09-30 06:55:39 51°13.664 2°55.959 17.2948 4.090387 31.153656 29.22671
2009-09-30 06:55:44 51°13.664 2°55.959 17.2959 4.089764 31.148371 29.22671
2009-09-30 06:55:48 51°13.664 2°55.959 17.2961 4.08935 31.145464 29.22671
2009-09-30 06:55:54 51°13.664 2°55.959 17.2968 4.088935 31.141941 29.22671
2009-09-30 06:55:59 51°13.664 2°55.959 17.2947 4.088935 31.141941 29.22671
2009-09-30 06:56:04 51°13.664 2°55.959 17.2945 4.088416 31.136922 29.22671
2009-09-30 06:56:09 51°13.664 2°55.959 17.2934 4.087794 31.131638 29.22671
2009-09-30 06:56:14 51°13.664 2°55.959 17.2918 4.087171 31.126969 29.22671
2009-09-30 06:56:19 51°13.664 2°55.959 17.2947 4.086549 31.121685 29.22671
2009-09-30 06:56:24 51°13.664 2°55.959 17.293 4.086134 31.117547 29.22671
2009-09-30 06:56:29 51°13.664 2°55.959 17.2964 4.086134 31.117547 29.22671
2009-09-30 06:56:34 51°13.664 2°55.959 17.2957 4.085408 31.111998 29.261534
2009-09-30 06:56:39 51°13.664 2°55.959 17.2933 4.084578 31.105568 29.261534
2009-09-30 06:56:44 51°13.664 2°55.959 17.2928 4.083644 31.098258 29.261534
2009-09-30 06:56:49 51°13.664 2°55.959 17.2918 4.082815 31.091828 29.261534
2009-09-30 06:56:54 51°13.664 2°55.959 17.2921 4.082296 31.086811 29.261534
2009-09-30 06:56:59 51°13.664 2°55.959 17.2969 4.081777 31.082408 29.261534
2009-09-30 06:57:04 51°13.664 2°55.959 17.2943 4.081777 31.082408 29.261534
2009-09-30 06:57:09 51°13.664 2°55.959 17.2967 4.081155 31.076511 29.261534
2009-09-30 06:57:14 51°13.664 2°55.959 17.2965 4.080325 31.069467 29.261534
2009-09-30 06:57:19 51°13.664 2°55.959 17.2932 4.07908 31.059516 29.261534
2009-09-30 06:57:24 51°13.664 2°55.959 17.2921 4.078147 31.052206 29.261534
2009-09-30 06:57:28 51°13.664 2°55.959 17.2942 4.078147 31.052206 29.261534
2009-09-30 06:57:33 51°13.664 2°55.959 17.2957 4.077732 31.048685 29.261534
2009-09-30 06:57:39 51°13.664 2°55.96 17.2965 4.077213 31.043669 29.261534
2009-09-30 06:57:44 51°13.664 2°55.959 17.2952 4.076798 31.039535 29.261534
2009-09-30 06:57:49 51°13.664 2°55.959 17.2953 4.076487 31.036894 29.261534
2009-09-30 06:57:54 51°13.664 2°55.959 17.2947 4.075968 31.033106 29.261534
2009-09-30 06:57:59 51°13.664 2°55.959 17.2943 4.075968 31.033106 29.261534
2009-09-30 06:58:04 51°13.664 2°55.96 17.2944 4.075554 31.029584 29.261534
2009-09-30 06:58:09 51°13.663 2°55.959 17.294 4.075242 31.026944 29.261534
2009-09-30 06:58:14 51°13.663 2°55.959 17.2939 4.074931 31.02369 29.261534
2009-09-30 06:58:19 51°13.663 2°55.96 17.2949 4.074516 31.020169 29.22671
2009-09-30 06:58:24 51°13.663 2°55.96 17.2952 4.074101 31.016648 29.261534
2009-09-30 06:58:29 51°13.663 2°55.96 17.2944 4.074101 31.016648 29.261534
2009-09-30 06:58:34 51°13.663 2°55.96 17.2964 4.073375 31.011099 29.261534
2009-09-30 06:58:39 51°13.663 2°55.96 17.2953 4.072857 31.006698 29.261534
2009-09-30 06:58:44 51°13.663 2°55.96 17.2934 4.072234 31.001417 29.261534
2009-09-30 06:58:49 51°13.663 2°55.96 17.2945 4.071612 30.996137 29.261534
2009-09-30 06:58:54 51°13.663 2°55.96 17.2943 4.070886 30.990588 29.261534
2009-09-30 06:58:59 51°13.663 2°55.96 17.2952 4.070471 30.987068 29.261534
2009-09-30 06:59:04 51°13.663 2°55.961 17.2918 4.070471 30.987068 29.261534
2009-09-30 06:59:09 51°13.663 2°55.961 17.2917 4.07016 30.983815 29.261534
2009-09-30 06:59:14 51°13.662 2°55.96 17.2938 4.069641 30.979415 29.261534
2009-09-30 06:59:19 51°13.662 2°55.96 17.2926 4.068915 30.973254 29.261534
2009-09-30 06:59:24 51°13.662 2°55.96 17.292 4.068396 30.969466 29.261534
2009-09-30 06:59:29 51°13.662 2°55.961 17.2928 4.068396 30.969466 29.261534
2009-09-30 06:59:34 51°13.662 2°55.961 17.2944 4.068293 30.967974 29.261534
2009-09-30 06:59:39 51°13.662 2°55.96 17.2941 4.068085 30.966826 29.261534
2009-09-30 06:59:44 51°13.662 2°55.96 17.2928 4.067774 30.964186 29.261534
2009-09-30 06:59:49 51°13.662 2°55.96 17.2945 4.067463 30.962158 29.296359
2009-09-30 06:59:54 51°13.662 2°55.96 17.2937 4.067152 30.96013 29.296359
2009-09-30 06:59:59 51°13.662 2°55.96 17.2925 4.067152 30.96013 29.296359
2009-09-30 07:00:04 51°13.662 2°55.959 17.2946 4.06684 30.95749 29.261534
2009-09-30 07:00:09 51°13.662 2°55.958 17.2942 4.066633 30.95573 29.296359
2009-09-30 07:00:14 51°13.662 2°55.957 17.291 4.066322 30.95309 29.296359
2009-09-30 07:00:19 51°13.663 2°55.955 17.2956 4.065907 30.94957 29.296359
2009-09-30 07:00:24 51°13.664 2°55.953 17.296 4.065388 30.944558 29.296359
2009-09-30 07:00:29 51°13.664 2°55.95 17.2943 4.065388 30.944558 29.296359
2009-09-30 07:00:34 51°13.665 2°55.946 17.2939 4.065181 30.942799 29.296359
2009-09-30 07:00:39 51°13.667 2°55.942 17.2922 4.064973 30.941039 29.261534
2009-09-30 07:00:45 51°13.668 2°55.937 17.2909 4.064973 30.941039 29.296359
2009-09-30 07:00:51 51°13.67 2°55.931 17.2941 4.064766 30.939279 29.296359
2009-09-30 07:00:57 51°13.672 2°55.925 17.2937 4.064351 30.935759 29.296359
2009-09-30 07:01:02 51°13.674 2°55.92 17.2924 4.06238 30.918431 29.296359
2009-09-30 07:01:08 51°13.675 2°55.914 17.2939 4.06238 30.918431 29.296359
2009-09-30 07:01:12 51°13.677 2°55.909 17.296 4.05875 30.88825 29.296359
2009-09-30 07:01:17 51°13.678 2°55.904 17.2943 4.055223 30.858342 29.296359
2009-09-30 07:01:23 51°13.68 2°55.897 17.295 4.052008 30.831687 29.296359
2009-09-30 07:01:28 51°13.682 2°55.891 17.2961 4.04983 30.813219 29.296359
2009-09-30 07:01:32 51°13.682 2°55.886 17.2976 4.04983 30.813219 29.296359
2009-09-30 07:01:37 51°13.684 2°55.879 17.3021 4.047652 30.794752 29.296359
2009-09-30 07:01:43 51°13.685 2°55.872 17.2982 4.046511 30.78508 29.331183
2009-09-30 07:01:48 51°13.686 2°55.865 17.298 4.046199 30.781834 29.366007
2009-09-30 07:01:53 51°13.687 2°55.858 17.2977 4.047444 30.792385 29.435655
2009-09-30 07:01:57 51°13.688 2°55.853 17.2991 4.050141 30.815248 29.470479
2009-09-30 07:02:03 51°13.689 2°55.845 17.2967 4.050141 30.815248 29.470479
2009-09-30 07:02:08 51°13.69 2°55.839 17.2959 4.053253 30.841022 29.505303
2009-09-30 07:02:13 51°13.691 2°55.833 17.2958 4.056053 30.862939 29.505303
2009-09-30 07:02:17 51°13.691 2°55.828 17.2994 4.058024 30.879041 29.505303
2009-09-30 07:02:23 51°13.692 2°55.821 17.2974 4.059995 30.895753 29.540127
2009-09-30 07:02:28 51°13.692 2°55.815 17.2988 4.061862 30.911588 29.540127
2009-09-30 07:02:33 51°13.692 2°55.809 17.3009 4.063521 30.925664 29.574951
2009-09-30 07:02:38 51°13.692 2°55.804 17.2965 4.063521 30.925664 29.574951
2009-09-30 07:02:43 51°13.692 2°55.798 17.2956 4.060202 30.897513 29.574951
2009-09-30 07:02:48 51°13.692 2°55.793 17.2952 4.06767 30.96147 29.574951
2009-09-30 07:02:52 51°13.692 2°55.789 17.293 4.069537 30.976698 29.609775
2009-09-30 07:02:58 51°13.692 2°55.783 17.2945 4.070678 30.986378 29.609775
2009-09-30 07:03:02 51°13.692 2°55.779 17.295 4.071819 30.995446 29.644599
2009-09-30 07:03:07 51°13.692 2°55.775 17.2944 4.071819 30.995446 29.644599
2009-09-30 07:03:12 51°13.691 2°55.771 17.2936 4.073271 31.007768 29.644599
2009-09-30 07:03:17 51°13.691 2°55.769 17.2906 4.07462 31.020436 29.644599
2009-09-30 07:03:22 51°13.692 2°55.769 17.2909 4.075761 31.031345 29.644599
2009-09-30 07:03:27 51°13.693 2°55.77 17.2908 4.07628 31.03636 29.644599
2009-09-30 07:03:32 51°13.694 2°55.773 17.292 4.07628 31.03636 29.644599
2009-09-30 07:03:36 51°13.696 2°55.775 17.2928 4.07628 31.03636 29.644599
2009-09-30 07:03:41 51°13.698 2°55.778 17.2922 4.076695 31.039268 29.644599
2009-09-30 07:03:46 51°13.701 2°55.78 17.294 4.077006 31.042522 29.679423
2009-09-30 07:03:51 51°13.703 2°55.782 17.2913 4.077421 31.047271 29.644599
2009-09-30 07:03:56 51°13.705 2°55.783 17.2913 4.077732 31.050526 29.679423
2009-09-30 07:04:01 51°13.706 2°55.784 17.2914 4.077732 31.05114 29.679423
2009-09-30 07:04:05 51°13.706 2°55.784 17.2917 4.077732 31.05114 29.679423
2009-09-30 07:04:10 51°13.706 2°55.784 17.2914 4.077732 31.05114 29.679423
2009-09-30 07:04:15 51°13.706 2°55.784 17.2921 4.077836 31.05202 29.679423
2009-09-30 07:04:20 51°13.704 2°55.784 17.2911 4.077836 31.05202 29.714247
2009-09-30 07:04:25 51°13.703 2°55.784 17.2908 4.077628 31.050259 29.679423
2009-09-30 07:04:29 51°13.702 2°55.784 17.2896 4.077524 31.049379 29.679423
2009-09-30 07:04:34 51°13.701 2°55.784 17.2906 4.077524 31.049379 29.679423
2009-09-30 07:04:40 51°13.701 2°55.784 17.2881 4.077213 31.046738 29.679423
2009-09-30 07:04:45 51°13.701 2°55.784 17.2881 4.075865 31.035292 29.679423
2009-09-30 07:04:52 51°13.703 2°55.784 17.2911 4.07379 31.017072 29.679423
2009-09-30 07:04:57 51°13.706 2°55.783 17.2885 4.070367 30.988638 29.679423
2009-09-30 07:05:03 51°13.709 2°55.782 17.2877 4.070367 30.988638 29.679423
2009-09-30 07:05:07 51°13.711 2°55.781 17.2904 4.066944 30.960206 29.679423
2009-09-30 07:05:12 51°13.714 2°55.779 17.2904 4.064144 30.936445 29.679423
2009-09-30 07:05:17 51°13.716 2°55.776 17.2937 4.061551 30.915058 29.679423
2009-09-30 07:05:22 51°13.719 2°55.773 17.2908 4.060306 30.9045 29.679423
2009-09-30 07:05:27 51°13.722 2°55.77 17.2912 4.059165 30.895432 29.679423
2009-09-30 07:05:32 51°13.724 2°55.767 17.2899 4.059165 30.895432 29.679423
2009-09-30 07:05:36 51°13.727 2°55.763 17.2896 4.058646 30.891644 29.679423
2009-09-30 07:05:41 51°13.73 2°55.759 17.293 4.058335 30.889005 29.679423
2009-09-30 07:05:46 51°13.733 2°55.754 17.2924 4.058128 30.887245 29.679423
2009-09-30 07:05:51 51°13.736 2°55.749 17.2917 4.058231 30.886904 29.679423
2009-09-30 07:05:56 51°13.74 2°55.743 17.2989 4.058335 30.887783 29.679423
2009-09-30 07:06:01 51°13.744 2°55.738 17.2946 4.058439 30.888663 29.679423
2009-09-30 07:06:05 51°13.748 2°55.733 17.2997 4.058439 30.888663 29.679423
2009-09-30 07:06:10 51°13.752 2°55.726 17.3013 4.056779 30.875198 29.679423
2009-09-30 07:06:15 51°13.757 2°55.72 17.2934 4.053149 30.8438 29.679423
2009-09-30 07:06:20 51°13.761 2°55.713 17.2971 4.049519 30.812407 29.679423
2009-09-30 07:06:25 51°13.766 2°55.707 17.2983 4.045162 30.774866 29.679423
2009-09-30 07:06:29 51°13.77 2°55.701 17.2985 4.04288 30.754308 29.679423
2009-09-30 07:06:34 51°13.776 2°55.695 17.2989 4.04288 30.754308 29.679423
2009-09-30 07:06:39 51°13.781 2°55.689 17.3139 4.041843 30.744909 29.644599
2009-09-30 07:06:44 51°13.787 2°55.682 17.3069 4.040599 30.733146 29.644599
2009-09-30 07:06:49 51°13.792 2°55.675 17.2981 4.031264 30.653446 29.679423
2009-09-30 07:06:54 51°13.798 2°55.668 17.2991 4.017055 30.532504 29.679423
2009-09-30 07:06:59 51°13.805 2°55.662 17.3004 4.017055 30.532504 29.679423
2009-09-30 07:07:04 51°13.811 2°55.656 17.2954 4.005854 30.43709 29.679423
2009-09-30 07:07:09 51°13.818 2°55.649 17.2942 3.999527 30.382959 29.679423
2009-09-30 07:07:14 51°13.825 2°55.643 17.2959 3.999631 30.382036 29.644599
2009-09-30 07:07:19 51°13.832 2°55.637 17.2931 4.001705 30.398383 29.644599
2009-09-30 07:07:24 51°13.839 2°55.632 17.3016 4.004298 30.42092 29.644599
2009-09-30 07:07:29 51°13.846 2°55.625 17.2998 4.004298 30.42092 29.644599
2009-09-30 07:07:34 51°13.853 2°55.619 17.2975 4.00658 30.44143 29.644599
2009-09-30 07:07:39 51°13.861 2°55.613 17.2939 4.011039 30.480978 29.644599
2009-09-30 07:07:44 51°13.868 2°55.607 17.2962 4.015706 30.521089 29.644599
2009-09-30 07:07:49 51°13.875 2°55.6 17.3027 4.019129 30.550671 29.644599
2009-09-30 07:07:54 51°13.883 2°55.594 17.294 4.021929 30.574987 29.644599
2009-09-30 07:07:59 51°13.891 2°55.588 17.2933 4.024522 30.595737 29.644599
2009-09-30 07:08:04 51°13.899 2°55.582 17.2884 4.024522 30.595737 29.644599
2009-09-30 07:08:09 51°13.907 2°55.576 17.2935 4.026389 30.612154 29.644599
2009-09-30 07:08:14 51°13.915 2°55.57 17.2823 4.028775 30.632359 29.679423
2009-09-30 07:08:19 51°13.923 2°55.564 17.2905 4.030745 30.649052 29.679423
2009-09-30 07:08:24 51°13.931 2°55.558 17.2825 4.032612 30.664868 29.714247
2009-09-30 07:08:29 51°13.939 2°55.552 17.2858 4.032612 30.664868 29.714247
2009-09-30 07:08:34 51°13.947 2°55.546 17.2852 4.033753 30.676353 29.679423
2009-09-30 07:08:39 51°13.955 2°55.539 17.2898 4.033442 30.674929 29.679423
2009-09-30 07:08:44 51°13.964 2°55.533 17.2892 4.031471 30.658838 29.679423
2009-09-30 07:08:49 51°13.972 2°55.527 17.2897 4.029397 30.642475 29.679423
2009-09-30 07:08:54 51°13.98 2°55.521 17.2949 4.027945 30.630778 29.679423
2009-09-30 07:08:59 51°13.989 2°55.514 17.2913 4.027945 30.630778 29.679423
2009-09-30 07:09:04 51°13.998 2°55.507 17.2831 4.027323 30.627322 29.679423
2009-09-30 07:09:09 51°14.007 2°55.501 17.2843 4.028152 30.634352 29.679423
2009-09-30 07:09:14 51°14.016 2°55.494 17.2843 4.029708 30.647534 29.714247
2009-09-30 07:09:19 51°14.024 2°55.488 17.2833 4.031056 30.658958 29.679423
2009-09-30 07:09:24 51°14.033 2°55.481 17.2827 4.031783 30.664504 29.714247
2009-09-30 07:09:29 51°14.042 2°55.475 17.2868 4.031783 30.664504 29.714247
2009-09-30 07:09:34 51°14.051 2°55.469 17.2845 4.032094 30.665929 29.679423
2009-09-30 07:09:39 51°14.061 2°55.463 17.2872 4.031886 30.665383 29.714247
2009-09-30 07:09:44 51°14.07 2°55.456 17.2861 4.031575 30.663959 29.714247
2009-09-30 07:09:49 51°14.079 2°55.45 17.2847 4.031264 30.661928 29.714247
2009-09-30 07:09:54 51°14.088 2°55.444 17.2853 4.030849 30.659019 29.679423
2009-09-30 07:09:59 51°14.097 2°55.437 17.2855 4.031057 30.660776 29.714247
2009-09-30 07:10:04 51°14.106 2°55.43 17.2832 4.031057 30.660776 29.714247
2009-09-30 07:10:09 51°14.115 2°55.423 17.2863 4.031886 30.667808 29.714247
2009-09-30 07:10:14 51°14.123 2°55.416 17.2825 4.032716 30.674839 29.714247
2009-09-30 07:10:19 51°14.132 2°55.409 17.2887 4.033027 30.677476 29.714247
2009-09-30 07:10:24 51°14.141 2°55.401 17.283 4.032923 30.676597 29.714247
2009-09-30 07:10:29 51°14.149 2°55.393 17.2824 4.032923 30.676597 29.714247
2009-09-30 07:10:34 51°14.158 2°55.385 17.2812 4.032509 30.672475 29.714247
2009-09-30 07:10:39 51°14.166 2°55.377 17.2811 4.031679 30.66605 29.714247
2009-09-30 07:10:44 51°14.174 2°55.368 17.2748 4.031264 30.662534 29.714247
2009-09-30 07:10:49 51°14.182 2°55.359 17.2739 4.030123 30.653472 29.714247
2009-09-30 07:10:54 51°14.19 2°55.35 17.2691 4.028878 30.64232 29.749071
2009-09-30 07:10:59 51°14.198 2°55.34 17.2731 4.028878 30.64232 29.749071
2009-09-30 07:11:04 51°14.205 2°55.329 17.2656 4.02753 30.631502 29.714247
2009-09-30 07:11:09 51°14.213 2°55.319 17.2643 4.0267 30.625077 29.749071
2009-09-30 07:11:14 51°14.22 2°55.308 17.2615 4.02556 30.617226 29.714247
2009-09-30 07:11:19 51°14.228 2°55.296 17.2635 4.022967 30.597072 29.749071
2009-09-30 07:11:24 51°14.235 2°55.284 17.2591 4.019544 30.569889 29.749071
2009-09-30 07:11:29 51°14.242 2°55.272 17.2541 4.01581 30.540071 29.749071
2009-09-30 07:11:34 51°14.25 2°55.259 17.255 4.01581 30.540071 29.749071
2009-09-30 07:11:39 51°14.257 2°55.246 17.256 4.01301 30.51816 29.783895
2009-09-30 07:11:44 51°14.265 2°55.233 17.2514 4.010936 30.5024 29.783895
2009-09-30 07:11:49 51°14.272 2°55.219 17.2563 4.009795 30.494545 29.749071
2009-09-30 07:11:54 51°14.28 2°55.206 17.2453 4.008758 30.487569 29.783895
2009-09-30 07:11:59 51°14.288 2°55.192 17.2408 4.00741 30.477354 29.783895
2009-09-30 07:12:04 51°14.295 2°55.178 17.244 4.00741 30.477354 29.783895
2009-09-30 07:12:09 51°14.303 2°55.163 17.2423 4.006787 30.473288 29.783895
2009-09-30 07:12:14 51°14.31 2°55.148 17.2352 4.00658 30.472737 29.818719
2009-09-30 07:12:19 51°14.318 2°55.133 17.2281 4.006684 30.474821 29.818719
2009-09-30 07:12:24 51°14.326 2°55.117 17.2253 4.008032 30.486846 29.853543
2009-09-30 07:12:29 51°14.334 2°55.102 17.2213 4.008032 30.486846 29.853543
2009-09-30 07:12:34 51°14.342 2°55.088 17.2097 4.011558 30.519742 29.853543
2009-09-30 07:12:39 51°14.349 2°55.072 17.2137 4.015811 30.558198 29.888367
2009-09-30 07:12:44 51°14.358 2°55.057 17.2051 4.018922 30.585783 29.888367
2009-09-30 07:12:49 51°14.366 2°55.043 17.2064 4.024419 30.636027 29.958016
2009-09-30 07:12:54 51°14.375 2°55.028 17.2001 4.02919 30.680135 29.958016
2009-09-30 07:12:59 51°14.384 2°55.014 17.2085 4.02919 30.680135 29.958016
2009-09-30 07:13:04 51°14.393 2°54.999 17.1983 4.03365 30.722229 29.99284
2009-09-30 07:13:09 51°14.402 2°54.985 17.1988 4.037695 30.76143 30.027664
2009-09-30 07:13:14 51°14.411 2°54.97 17.1975 4.042259 30.803833 30.097312
2009-09-30 07:13:19 51°14.42 2°54.954 17.1957 4.047549 30.851809 30.132136
2009-09-30 07:13:24 51°14.43 2°54.939 17.1946 4.054602 30.915399 30.201784
2009-09-30 07:13:29 51°14.439 2°54.922 17.1961 4.05844 30.949239 30.201784
2009-09-30 07:13:34 51°14.449 2°54.906 17.1962 4.05844 30.949239 30.201784
2009-09-30 07:13:39 51°14.459 2°54.89 17.1966 4.063108 30.990754 30.236608
2009-09-30 07:13:44 51°14.47 2°54.874 17.1976 4.067464 31.03025 30.271432
2009-09-30 07:13:49 51°14.481 2°54.858 17.1879 4.072443 31.074438 30.34108
2009-09-30 07:13:54 51°14.492 2°54.842 17.1873 4.077941 31.123051 30.410728
2009-09-30 07:13:59 51°14.503 2°54.825 17.1835 4.077941 31.123051 30.410728
2009-09-30 07:14:04 51°14.514 2°54.807 17.1878 4.083646 31.172211 30.445552
2009-09-30 07:14:09 51°14.524 2°54.79 17.1798 4.088728 31.215469 30.5152
2009-09-30 07:14:14 51°14.535 2°54.773 17.1881 4.093293 31.254939 30.550024
2009-09-30 07:14:19 51°14.546 2°54.755 17.1818 4.097338 31.290003 30.619673
2009-09-30 07:14:24 51°14.557 2°54.738 17.1782 4.102006 31.331616 30.619673
2009-09-30 07:14:29 51°14.568 2°54.72 17.1776 4.102006 31.331616 30.619673
2009-09-30 07:14:34 51°14.579 2°54.703 17.173 4.105844 31.366794 30.619673
2009-09-30 07:14:39 51°14.59 2°54.685 17.1807 4.108127 31.386859 30.654497
2009-09-30 07:14:44 51°14.601 2°54.667 17.181 4.111965 31.421431 30.619673
2009-09-30 07:14:49 51°14.612 2°54.65 17.1758 4.114143 31.440619 30.619673
2009-09-30 07:14:54 51°14.623 2°54.632 17.1797 4.116322 31.461057 30.619673
2009-09-30 07:14:59 51°14.634 2°54.614 17.182 4.118915 31.485037 30.619673
2009-09-30 07:15:04 51°14.644 2°54.597 17.1811 4.118915 31.485037 30.619673
2009-09-30 07:15:09 51°14.655 2°54.579 17.1893 4.12265 31.518752 30.619673
2009-09-30 07:15:14 51°14.666 2°54.561 17.1861 4.125658 31.545031 30.584849
2009-09-30 07:15:19 51°14.676 2°54.543 17.1824 4.129497 31.57714 30.584849
2009-09-30 07:15:24 51°14.687 2°54.525 17.1774 4.133439 31.611392 30.584849
2009-09-30 07:15:29 51°14.698 2°54.508 17.1918 4.136136 31.633148 30.584849
2009-09-30 07:15:34 51°14.709 2°54.49 17.1795 4.136136 31.633148 30.584849
2009-09-30 07:15:39 51°14.72 2°54.473 17.1875 4.139352 31.659957 30.584849
2009-09-30 07:15:44 51°14.731 2°54.455 17.1903 4.142983 31.689682 30.550024
2009-09-30 07:15:49 51°14.742 2°54.438 17.1896 4.146303 31.716752 30.584849
2009-09-30 07:15:54 51°14.753 2°54.421 17.1901 4.15066 31.755199 30.550024
2009-09-30 07:15:59 51°14.765 2°54.404 17.1918 4.15066 31.755199 30.550024
2009-09-30 07:16:04 51°14.776 2°54.388 17.1926 4.153254 31.777337 30.550024
2009-09-30 07:16:09 51°14.788 2°54.372 17.1936 4.156885 31.807705 30.5152
2009-09-30 07:16:14 51°14.799 2°54.356 17.1964 4.159686 31.830989 30.5152
2009-09-30 07:16:19 51°14.811 2°54.341 17.1954 4.162902 31.857187 30.480376
2009-09-30 07:16:24 51°14.823 2°54.325 17.2022 4.165807 31.880728 30.480376
2009-09-30 07:16:29 51°14.835 2°54.309 17.2046 4.165807 31.880728 30.480376
2009-09-30 07:16:34 51°14.847 2°54.294 17.2035 4.168504 31.902498 30.445552
2009-09-30 07:16:39 51°14.859 2°54.279 17.2034 4.171098 31.924017 30.445552
2009-09-30 07:16:44 51°14.871 2°54.263 17.2064 4.173484 31.943131 30.445552
2009-09-30 07:16:49 51°14.882 2°54.248 17.2121 4.175248 31.956928 30.445552
2009-09-30 07:16:54 51°14.895 2°54.234 17.2099 4.177634 31.976043 30.480376
2009-09-30 07:16:59 51°14.907 2°54.219 17.2108 4.179709 31.991864 30.480376
2009-09-30 07:17:04 51°14.919 2°54.206 17.2102 4.179709 31.991864 30.480376
2009-09-30 07:17:09 51°14.931 2°54.191 17.2192 4.181784 32.00832 30.480376
2009-09-30 07:17:14 51°14.944 2°54.177 17.2235 4.184171 32.027436 30.480376
2009-09-30 07:17:19 51°14.956 2°54.163 17.223 4.186349 32.044779 30.445552
2009-09-30 07:17:24 51°14.969 2°54.149 17.222 4.188009 32.057054 30.410728
2009-09-30 07:17:29 51°14.981 2°54.135 17.2263 4.188009 32.057054 30.410728
2009-09-30 07:17:34 51°14.994 2°54.122 17.2253 4.189358 32.06667 30.410728
2009-09-30 07:17:39 51°15.007 2°54.108 17.2321 4.191018 32.079581 30.410728
2009-09-30 07:17:44 51°15.019 2°54.095 17.2316 4.192367 32.088559 30.375904
2009-09-30 07:17:49 51°15.032 2°54.081 17.2344 4.193612 32.097287 30.34108
2009-09-30 07:17:54 51°15.044 2°54.068 17.2304 4.195376 32.110447 30.34108
2009-09-30 07:17:59 51°15.056 2°54.053 17.2318 4.195376 32.110447 30.34108
2009-09-30 07:18:04 51°15.069 2°54.039 17.2349 4.19714 32.123606 30.306256
2009-09-30 07:18:09 51°15.08 2°54.023 17.2363 4.1988 32.135878 30.306256
2009-09-30 07:18:14 51°15.092 2°54.008 17.2388 4.199941 32.143717 30.271432
2009-09-30 07:18:19 51°15.103 2°53.992 17.2382 4.201082 32.151556 30.306256
2009-09-30 07:18:24 51°15.114 2°53.974 17.24 4.202431 32.161805 30.271432
2009-09-30 07:18:29 51°15.124 2°53.957 17.2426 4.204195 32.176237 30.271432
2009-09-30 07:18:34 51°15.134 2°53.938 17.2422 4.204195 32.176237 30.271432
2009-09-30 07:18:39 51°15.144 2°53.92 17.243 4.205232 32.184463 30.271432
2009-09-30 07:18:44 51°15.152 2°53.9 17.2444 4.206166 32.191166 30.271432
2009-09-30 07:18:49 51°15.159 2°53.879 17.248 4.2071 32.197868 30.271432
2009-09-30 07:18:54 51°15.166 2°53.857 17.2494 4.208034 32.205208 30.271432
2009-09-30 07:18:59 51°15.173 2°53.835 17.2486 4.20876 32.210137 30.236608
2009-09-30 07:19:04 51°15.178 2°53.813 17.2496 4.20876 32.210137 30.236608
2009-09-30 07:19:09 51°15.182 2°53.789 17.2519 4.209694 32.216839 30.271432
2009-09-30 07:19:13 51°15.184 2°53.77 17.2512 4.210524 32.223293 30.271432
2009-09-30 07:19:19 51°15.188 2°53.742 17.2527 4.211354 32.229108 30.236608
2009-09-30 07:19:24 51°15.189 2°53.717 17.2533 4.211873 32.232263 30.236608
2009-09-30 07:19:29 51°15.192 2°53.692 17.2543 4.211873 32.232263 30.236608
2009-09-30 07:19:34 51°15.193 2°53.668 17.2535 4.212391 32.23478 30.236608
2009-09-30 07:19:39 51°15.195 2°53.643 17.2556 4.213014 32.23946 30.236608
2009-09-30 07:19:44 51°15.196 2°53.618 17.2558 4.213533 32.243253 30.236608
2009-09-30 07:19:49 51°15.197 2°53.593 17.254 4.214052 32.246408 30.236608
2009-09-30 07:19:54 51°15.197 2°53.568 17.2556 4.21457 32.249562 30.201784
2009-09-30 07:19:59 51°15.198 2°53.543 17.2545 4.21457 32.249562 30.201784
2009-09-30 07:20:04 51°15.198 2°53.518 17.2592 4.215089 32.253356 30.201784
2009-09-30 07:20:09 51°15.199 2°53.492 17.257 4.215815 32.258283 30.16696
2009-09-30 07:20:14 51°15.199 2°53.467 17.2555 4.216438 32.262962 30.16696
2009-09-30 07:20:19 51°15.2 2°53.442 17.2574 4.217061 32.268281 30.16696
2009-09-30 07:20:24 51°15.2 2°53.417 17.255 4.217787 32.274485 30.132136
2009-09-30 07:20:29 51°15.2 2°53.391 17.2574 4.218306 32.278278 30.132136
2009-09-30 07:20:34 51°15.2 2°53.366 17.2581 4.218306 32.278278 30.132136
2009-09-30 07:20:39 51°15.201 2°53.341 17.2563 4.218617 32.279659 30.132136
2009-09-30 07:20:44 51°15.201 2°53.316 17.2546 4.219032 32.282566 30.132136
2009-09-30 07:20:49 51°15.201 2°53.29 17.2576 4.219447 32.286111 30.097312
2009-09-30 07:20:54 51°15.201 2°53.265 17.2561 4.219862 32.290297 30.062488
2009-09-30 07:20:59 51°15.201 2°53.24 17.2553 4.219862 32.290297 30.062488
2009-09-30 07:21:04 51°15.201 2°53.214 17.2549 4.220173 32.292316 30.062488
2009-09-30 07:21:09 51°15.201 2°53.189 17.2538 4.220381 32.29345 30.062488
2009-09-30 07:21:14 51°15.202 2°53.164 17.2549 4.220796 32.296996 30.062488
2009-09-30 07:21:19 51°15.202 2°53.138 17.257 4.221211 32.301181 30.027664
2009-09-30 07:21:24 51°15.204 2°53.113 17.2524 4.221522 32.303841 30.027664
2009-09-30 07:21:29 51°15.204 2°53.088 17.2516 4.221522 32.303841 30.027664
2009-09-30 07:21:34 51°15.206 2°53.063 17.2538 4.221833 32.305861 30.027664
2009-09-30 07:21:39 51°15.207 2°53.037 17.252 4.222352 32.310933 29.99284
2009-09-30 07:21:44 51°15.208 2°53.012 17.2516 4.222664 32.313593 29.99284
2009-09-30 07:21:49 51°15.21 2°52.987 17.2518 4.222975 32.316252 29.99284
2009-09-30 07:21:54 51°15.211 2°52.962 17.2517 4.223182 32.318025 29.99284
2009-09-30 07:21:59 51°15.213 2°52.937 17.2508 4.223494 32.321325 29.99284
2009-09-30 07:22:04 51°15.214 2°52.912 17.2511 4.223494 32.321325 29.99284
2009-09-30 07:22:09 51°15.216 2°52.887 17.2521 4.223805 32.324625 29.99284
2009-09-30 07:22:14 51°15.218 2°52.862 17.2507 4.223909 32.326152 29.958016
2009-09-30 07:22:19 51°15.219 2°52.837 17.248 4.224324 32.330339 29.958016
2009-09-30 07:22:24 51°15.221 2°52.812 17.249 4.224531 32.332752 29.99284
2009-09-30 07:22:29 51°15.223 2°52.787 17.249 4.224843 32.335413 29.958016
2009-09-30 07:22:34 51°15.224 2°52.761 17.2479 4.224843 32.335413 29.958016
2009-09-30 07:22:39 51°15.226 2°52.736 17.2494 4.225258 32.3396 29.99284
2009-09-30 07:22:44 51°15.228 2°52.711 17.2486 4.225673 32.343788 29.99284
2009-09-30 07:22:44 51°15.228 2°52.711 17.2486 4.225673 32.343788 29.99284
2009-09-30 07:22:55 51°15.232 2°52.656 17.2471 4.226399 32.350636 29.99284
2009-09-30 07:23:00 51°15.234 2°52.632 17.2496 4.22671 32.353937 29.99284
2009-09-30 07:23:05 51°15.235 2°52.606 17.252 4.227022 32.356598 29.99284
2009-09-30 07:23:09 51°15.236 2°52.586 17.2514 4.227022 32.356598 29.99284
2009-09-30 07:23:15 51°15.238 2°52.556 17.2484 4.227229 32.359013 29.958016
2009-09-30 07:23:20 51°15.241 2°52.531 17.2509 4.22754 32.361673 29.958016
2009-09-30 07:23:25 51°15.242 2°52.506 17.2506 4.227748 32.364088 29.958016
2009-09-30 07:23:30 51°15.244 2°52.481 17.2491 4.227852 32.364975 29.99284
2009-09-30 07:23:35 51°15.246 2°52.456 17.2508 4.227852 32.364975 29.99284
2009-09-30 07:23:40 51°15.248 2°52.431 17.2529 4.227955 32.365221 29.99284
2009-09-30 07:23:45 51°15.25 2°52.406 17.2524 4.228059 32.365467 30.027664
2009-09-30 07:23:50 51°15.252 2°52.381 17.2498 4.228474 32.369014 30.062488
2009-09-30 07:23:55 51°15.253 2°52.356 17.2523 4.228786 32.371675 30.062488
2009-09-30 07:24:00 51°15.255 2°52.331 17.2499 4.229201 32.375223 30.097312
2009-09-30 07:24:05 51°15.257 2°52.306 17.2503 4.229616 32.378129 30.097312
2009-09-30 07:24:10 51°15.259 2°52.28 17.252 4.229616 32.378129 30.097312
2009-09-30 07:24:15 51°15.26 2°52.255 17.2504 4.229927 32.380149 30.132136
2009-09-30 07:24:20 51°15.262 2°52.23 17.249 4.230134 32.381923 30.097312
2009-09-30 07:24:39 51°15.269 2°52.134 17.2518 4.230653 32.386999 30.062488
2009-09-30 07:24:44 51°15.271 2°52.109 17.2504 4.230757 32.387245 30.062488
2009-09-30 07:24:49 51°15.273 2°52.083 17.2504 4.230861 32.388773 30.062488
2009-09-30 07:24:53 51°15.274 2°52.063 17.2523 4.231068 32.389905 30.027664
2009-09-30 07:24:59 51°15.276 2°52.033 17.2499 4.231172 32.390792 30.027664
2009-09-30 07:25:04 51°15.278 2°52.007 17.2495 4.231172 32.390792 30.027664
2009-09-30 07:25:09 51°15.28 2°51.982 17.2481 4.231172 32.390792 30.027664
2009-09-30 07:25:14 51°15.282 2°51.957 17.2474 4.231276 32.391679 30.027664
2009-09-30 07:25:19 51°15.283 2°51.932 17.2492 4.23138 32.393208 30.027664
2009-09-30 07:25:24 51°15.285 2°51.906 17.2488 4.231483 32.394095 30.027664
2009-09-30 07:25:29 51°15.287 2°51.881 17.2497 4.231587 32.394982 30.027664
2009-09-30 07:25:34 51°15.288 2°51.856 17.2501 4.231587 32.394982 30.027664
2009-09-30 07:25:39 51°15.29 2°51.831 17.2467 4.231691 32.396511 30.062488
2009-09-30 07:25:44 51°15.293 2°51.806 17.2469 4.231795 32.397398 30.062488
2009-09-30 07:25:49 51°15.294 2°51.78 17.2514 4.231898 32.398285 30.097312
2009-09-30 07:25:54 51°15.296 2°51.755 17.2517 4.232002 32.399172 30.097312
2009-09-30 07:25:59 51°15.298 2°51.73 17.2509 4.232002 32.399172 30.097312
2009-09-30 07:26:04 51°15.3 2°51.704 17.2487 4.232106 32.400059 30.097312
2009-09-30 07:26:09 51°15.302 2°51.679 17.2474 4.232313 32.401833 30.132136
2009-09-30 07:26:14 51°15.304 2°51.654 17.249 4.232521 32.404249 30.132136
2009-09-30 07:26:19 51°15.306 2°51.628 17.2473 4.232521 32.404249 30.132136
2009-09-30 07:26:24 51°15.308 2°51.603 17.2493 4.232625 32.404494 30.132136
2009-09-30 07:26:29 51°15.31 2°51.578 17.248 4.232625 32.404494 30.132136
2009-09-30 07:26:34 51°15.312 2°51.552 17.2476 4.232729 32.404739 30.132136
2009-09-30 07:26:39 51°15.314 2°51.527 17.2474 4.232936 32.407156 30.132136
2009-09-30 07:26:44 51°15.316 2°51.502 17.2475 4.23304 32.408043 30.132136
2009-09-30 07:26:49 51°15.318 2°51.477 17.2476 4.233144 32.40893 30.132136
2009-09-30 07:26:54 51°15.319 2°51.451 17.249 4.233144 32.409572 30.132136
2009-09-30 07:26:59 51°15.321 2°51.426 17.2468 4.233247 32.410459 30.132136
2009-09-30 07:27:04 51°15.323 2°51.401 17.2504 4.233247 32.410459 30.132136
2009-09-30 07:27:09 51°15.325 2°51.375 17.2474 4.233351 32.411346 30.132136
2009-09-30 07:27:14 51°15.326 2°51.35 17.2454 4.233351 32.411346 30.132136
2009-09-30 07:27:19 51°15.328 2°51.325 17.249 4.233455 32.412875 30.097312
2009-09-30 07:27:24 51°15.33 2°51.299 17.2478 4.233455 32.412233 30.097312
2009-09-30 07:27:29 51°15.332 2°51.274 17.2477 4.233455 32.412233 30.097312
2009-09-30 07:27:34 51°15.334 2°51.249 17.2485 4.233662 32.414007 30.097312
2009-09-30 07:27:39 51°15.336 2°51.224 17.2509 4.233766 32.414894 30.097312
2009-09-30 07:27:44 51°15.337 2°51.199 17.2475 4.233974 32.416669 30.062488
2009-09-30 07:27:49 51°15.34 2°51.174 17.2499 4.234181 32.418443 30.062488
2009-09-30 07:27:54 51°15.341 2°51.15 17.2478 4.234493 32.421104 30.027664
2009-09-30 07:27:59 51°15.343 2°51.125 17.2491 4.234493 32.421104 30.027664
2009-09-30 07:28:04 51°15.345 2°51.1 17.2503 4.234804 32.423124 30.027664
2009-09-30 07:28:09 51°15.347 2°51.075 17.2542 4.235011 32.424898 30.027664
2009-09-30 07:28:14 51°15.349 2°51.051 17.2584 4.235426 32.428447 29.99284
2009-09-30 07:28:19 51°15.351 2°51.026 17.2593 4.235945 32.432883 29.99284
2009-09-30 07:28:24 51°15.353 2°51.002 17.2612 4.236568 32.438206 29.99284
2009-09-30 07:28:29 51°15.354 2°50.977 17.2652 4.237087 32.442642 29.958016
2009-09-30 07:28:34 51°15.356 2°50.952 17.267 4.237087 32.442642 29.958016
2009-09-30 07:28:39 51°15.359 2°50.928 17.2681 4.237502 32.446191 29.958016
2009-09-30 07:28:44 51°15.36 2°50.903 17.273 4.238332 32.452003 29.958016
2009-09-30 07:28:49 51°15.362 2°50.879 17.2742 4.239369 32.458947 29.958016
2009-09-30 07:28:54 51°15.364 2°50.854 17.2744 4.240407 32.46589 29.99284
2009-09-30 07:28:59 51°15.367 2°50.83 17.2787 4.241445 32.47219 29.958016
2009-09-30 07:29:04 51°15.369 2°50.805 17.2807 4.241445 32.47219 29.958016
2009-09-30 07:29:09 51°15.371 2°50.78 17.2846 4.242275 32.476715 29.958016
2009-09-30 07:29:14 51°15.373 2°50.756 17.2843 4.243312 32.483657 29.958016
2009-09-30 07:29:19 51°15.375 2°50.731 17.2856 4.244142 32.488181 29.958016
2009-09-30 07:29:24 51°15.378 2°50.707 17.2839 4.245076 32.494235 29.958016
2009-09-30 07:29:29 51°15.38 2°50.682 17.2876 4.245076 32.494235 29.958016
2009-09-30 07:29:34 51°15.382 2°50.657 17.287 4.24601 32.500932 29.923192
2009-09-30 07:29:39 51°15.384 2°50.633 17.288 4.246944 32.506341 29.923192
2009-09-30 07:29:44 51°15.387 2°50.608 17.2899 4.247878 32.512394 29.923192
2009-09-30 07:29:49 51°15.389 2°50.584 17.291 4.248604 32.516672 29.888367
2009-09-30 07:29:54 51°15.389 2°50.559 17.2916 4.24933 32.52095 29.888367
2009-09-30 07:29:59 51°15.39 2°50.534 17.2918 4.24933 32.52095 29.888367
2009-09-30 07:30:04 51°15.39 2°50.509 17.2927 4.249953 32.524985 29.888367
2009-09-30 07:30:09 51°15.39 2°50.484 17.2945 4.250679 32.53055 29.888367
2009-09-30 07:30:14 51°15.39 2°50.459 17.2931 4.251302 32.535227 29.888367
2009-09-30 07:30:19 51°15.39 2°50.435 17.2952 4.251717 32.538131 29.888367
2009-09-30 07:30:24 51°15.389 2°50.41 17.2968 4.25234 32.542809 29.888367
2009-09-30 07:30:29 51°15.389 2°50.384 17.2987 4.252858 32.5466 29.888367
2009-09-30 07:30:34 51°15.388 2°50.36 17.2982 4.252858 32.5466 29.888367
2009-09-30 07:30:39 51°15.386 2°50.334 17.2979 4.253481 32.550633 29.888367
2009-09-30 07:30:44 51°15.385 2°50.31 17.3011 4.253792 32.55265 29.888367
2009-09-30 07:30:49 51°15.384 2°50.285 17.3004 4.254311 32.556441 29.888367
2009-09-30 07:30:54 51°15.382 2°50.26 17.3025 4.254622 32.558457 29.923192
2009-09-30 07:30:59 51°15.382 2°50.235 17.3029 4.255037 32.560717 29.888367
2009-09-30 07:31:04 51°15.38 2°50.21 17.3036 4.255037 32.560717 29.888367
2009-09-30 07:31:09 51°15.379 2°50.185 17.3053 4.255453 32.562976 29.923192
2009-09-30 07:31:14 51°15.378 2°50.16 17.3033 4.255971 32.566766 29.923192
2009-09-30 07:31:19 51°15.376 2°50.135 17.3056 4.256386 32.569025 29.923192
2009-09-30 07:31:24 51°15.375 2°50.11 17.3051 4.256801 32.571928 29.923192
2009-09-30 07:31:29 51°15.373 2°50.085 17.306 4.256801 32.571928 29.923192
2009-09-30 07:31:34 51°15.372 2°50.06 17.3062 4.257113 32.5733 29.923192
2009-09-30 07:31:39 51°15.37 2°50.035 17.3073 4.257528 32.576203 29.888367
2009-09-30 07:31:44 51°15.369 2°50.01 17.3094 4.257943 32.579106 29.888367
2009-09-30 07:31:49 51°15.369 2°49.985 17.3092 4.258254 32.581122 29.923192
2009-09-30 07:31:54 51°15.367 2°49.96 17.3063 4.258669 32.584025 29.923192
2009-09-30 07:31:59 51°15.365 2°49.935 17.3107 4.258981 32.586685 29.923192
2009-09-30 07:32:04 51°15.363 2°49.91 17.3087 4.258981 32.586685 29.923192
2009-09-30 07:32:09 51°15.362 2°49.885 17.3094 4.259292 32.588056 29.958016
2009-09-30 07:32:14 51°15.36 2°49.861 17.3091 4.259603 32.590072 29.958016
2009-09-30 07:32:19 51°15.359 2°49.836 17.3116 4.259811 32.591201 29.923192
2009-09-30 07:32:24 51°15.357 2°49.811 17.3108 4.260122 32.593862 29.923192
2009-09-30 07:32:29 51°15.355 2°49.786 17.316 4.26033 32.595635 29.923192
2009-09-30 07:32:34 51°15.354 2°49.761 17.3134 4.26033 32.595635 29.923192
2009-09-30 07:32:39 51°15.352 2°49.737 17.3125 4.260641 32.597651 29.958016
2009-09-30 07:32:44 51°15.351 2°49.712 17.3148 4.260952 32.599667 29.958016
2009-09-30 07:32:49 51°15.349 2°49.687 17.3148 4.26116 32.60144 29.958016
2009-09-30 07:32:54 51°15.348 2°49.662 17.3168 4.261367 32.602569 29.958016
2009-09-30 07:32:59 51°15.347 2°49.637 17.3144 4.261367 32.602569 29.958016
2009-09-30 07:33:04 51°15.345 2°49.613 17.3149 4.261678 32.60394 29.958016
2009-09-30 07:33:09 51°15.344 2°49.588 17.3181 4.261886 32.605069 29.958016
2009-09-30 07:33:14 51°15.342 2°49.563 17.3157 4.262094 32.606198 29.99284
2009-09-30 07:33:19 51°15.342 2°49.538 17.3229 4.262301 32.607326 29.99284
2009-09-30 07:33:24 51°15.34 2°49.513 17.3196 4.262612 32.609342 29.99284
2009-09-30 07:33:29 51°15.34 2°49.488 17.3192 4.262612 32.609342 29.99284
2009-09-30 07:33:34 51°15.339 2°49.464 17.3216 4.26282 32.61047 29.99284
2009-09-30 07:33:39 51°15.338 2°49.439 17.3203 4.263027 32.612244 30.027664
2009-09-30 07:33:44 51°15.337 2°49.414 17.3198 4.263235 32.613372 30.027664
2009-09-30 07:33:49 51°15.335 2°49.389 17.3208 4.263442 32.614501 30.027664
2009-09-30 07:33:54 51°15.334 2°49.365 17.3222 4.26365 32.615629 30.027664
2009-09-30 07:33:59 51°15.333 2°49.34 17.3222 4.263858 32.617403 30.027664
2009-09-30 07:34:04 51°15.332 2°49.316 17.3236 4.263858 32.617403 30.027664
2009-09-30 07:34:09 51°15.331 2°49.291 17.3232 4.264065 32.618531 30.062488
2009-09-30 07:34:14 51°15.33 2°49.266 17.322 4.264273 32.61966 30.027664
2009-09-30 07:34:19 51°15.329 2°49.242 17.3212 4.264376 32.620547 30.027664
2009-09-30 07:34:24 51°15.328 2°49.217 17.3212 4.26448 32.620788 30.027664
2009-09-30 07:34:29 51°15.327 2°49.193 17.3209 4.264688 32.621917 30.027664
2009-09-30 07:34:34 51°15.326 2°49.168 17.325 4.264688 32.621917 30.027664
2009-09-30 07:34:39 51°15.325 2°49.143 17.3223 4.264688 32.621917 30.027664
2009-09-30 07:34:44 51°15.324 2°49.119 17.3207 4.264791 32.622158 30.027664
2009-09-30 07:34:49 51°15.323 2°49.094 17.323 4.264791 32.622158 30.027664
2009-09-30 07:34:54 51°15.322 2°49.07 17.3231 4.264895 32.623045 30.027664
2009-09-30 07:34:59 51°15.321 2°49.045 17.3252 4.264895 32.623045 30.027664
2009-09-30 07:35:04 51°15.32 2°49.021 17.3238 4.264791 32.622158 29.99284
2009-09-30 07:35:09 51°15.319 2°48.997 17.3222 4.264791 32.622158 29.958016
2009-09-30 07:35:14 51°15.318 2°48.972 17.3241 4.264688 32.621272 29.99284
2009-09-30 07:35:19 51°15.317 2°48.948 17.3226 4.264584 32.620385 29.958016
2009-09-30 07:35:24 51°15.316 2°48.923 17.3233 4.264584 32.61974 29.958016
2009-09-30 07:35:29 51°15.315 2°48.899 17.3225 4.264584 32.61974 29.958016
2009-09-30 07:35:34 51°15.314 2°48.874 17.3222 4.26448 32.618854 29.958016
2009-09-30 07:35:39 51°15.312 2°48.85 17.3226 4.264376 32.617967 29.958016
2009-09-30 07:35:44 51°15.311 2°48.825 17.3232 4.264169 32.616194 29.958016
2009-09-30 07:35:49 51°15.311 2°48.8 17.3236 4.263961 32.614421 29.958016
2009-09-30 07:35:54 51°15.309 2°48.776 17.3211 4.263754 32.612647 29.923192
2009-09-30 07:35:59 51°15.309 2°48.751 17.3207 4.263546 32.610874 29.888367
2009-09-30 07:36:04 51°15.308 2°48.726 17.3225 4.263546 32.610874 29.888367
2009-09-30 07:36:09 51°15.308 2°48.702 17.3221 4.263339 32.609746 29.888367
2009-09-30 07:36:14 51°15.307 2°48.677 17.3224 4.263235 32.608214 29.888367
2009-09-30 07:36:19 51°15.306 2°48.652 17.3207 4.263131 32.607328 29.853543
2009-09-30 07:36:24 51°15.305 2°48.628 17.3236 4.263131 32.607328 29.853543
2009-09-30 07:36:29 51°15.304 2°48.603 17.3236 4.263131 32.607328 29.853543
2009-09-30 07:36:34 51°15.303 2°48.579 17.3205 4.263027 32.607086 29.853543
2009-09-30 07:36:39 51°15.303 2°48.554 17.3227 4.263027 32.607086 29.853543
2009-09-30 07:36:44 51°15.302 2°48.53 17.3209 4.263027 32.607086 29.818719
2009-09-30 07:36:49 51°15.301 2°48.505 17.3219 4.263131 32.607972 29.818719
2009-09-30 07:36:54 51°15.3 2°48.48 17.322 4.263235 32.608859 29.818719
2009-09-30 07:36:59 51°15.299 2°48.456 17.3224 4.263235 32.608859 29.818719
2009-09-30 07:37:04 51°15.298 2°48.431 17.3225 4.263339 32.609746 29.818719
2009-09-30 07:37:09 51°15.298 2°48.407 17.3228 4.263546 32.611519 29.818719
2009-09-30 07:37:14 51°15.297 2°48.382 17.3224 4.26365 32.612405 29.818719
2009-09-30 07:37:19 51°15.296 2°48.357 17.3234 4.263857 32.614179 29.853543
2009-09-30 07:37:24 51°15.296 2°48.333 17.3224 4.263961 32.615065 29.853543
2009-09-30 07:37:29 51°15.295 2°48.308 17.3221 4.264065 32.615952 29.818719
2009-09-30 07:37:34 51°15.295 2°48.283 17.3213 4.264065 32.615952 29.818719
2009-09-30 07:37:39 51°15.294 2°48.259 17.321 4.264169 32.616839 29.853543
2009-09-30 07:37:44 51°15.293 2°48.234 17.321 4.264273 32.61708 29.818719
2009-09-30 07:37:49 51°15.293 2°48.21 17.3235 4.26448 32.618854 29.818719
2009-09-30 07:37:54 51°15.292 2°48.185 17.3226 4.264688 32.620627 29.783895
2009-09-30 07:37:59 51°15.291 2°48.161 17.3217 4.264791 32.621513 29.783895
2009-09-30 07:38:04 51°15.291 2°48.136 17.3234 4.264791 32.621513 29.783895
2009-09-30 07:38:09 51°15.29 2°48.111 17.3222 4.264895 32.623045 29.783895
2009-09-30 07:38:14 51°15.289 2°48.087 17.3217 4.264999 32.623932 29.783895
2009-09-30 07:38:19 51°15.288 2°48.063 17.3212 4.264999 32.623932 29.818719
2009-09-30 07:38:24 51°15.287 2°48.038 17.3217 4.264999 32.623932 29.783895
2009-09-30 07:38:29 51°15.286 2°48.013 17.3208 4.264999 32.623932 29.783895
2009-09-30 07:38:34 51°15.285 2°47.989 17.3205 4.265103 32.624818 29.783895
2009-09-30 07:38:39 51°15.285 2°47.964 17.3229 4.265103 32.624173 29.783895
2009-09-30 07:38:44 51°15.284 2°47.94 17.3205 4.265206 32.625705 29.818719
2009-09-30 07:38:49 51°15.283 2°47.915 17.3215 4.265206 32.625705 29.818719
2009-09-30 07:38:54 51°15.282 2°47.891 17.3215 4.265206 32.625705 29.783895
2009-09-30 07:38:59 51°15.281 2°47.866 17.3199 4.265207 32.62635 29.783895
2009-09-30 07:39:04 51°15.279 2°47.842 17.3207 4.265207 32.62635 29.783895
2009-09-30 07:39:09 51°15.278 2°47.817 17.3207 4.26531 32.627237 29.749071
2009-09-30 07:39:14 51°15.276 2°47.793 17.3217 4.265414 32.628769 29.749071
2009-09-30 07:39:19 51°15.276 2°47.769 17.3224 4.265622 32.630542 29.749071
2009-09-30 07:39:24 51°15.274 2°47.744 17.3225 4.265725 32.630784 29.749071
2009-09-30 07:39:29 51°15.273 2°47.72 17.3215 4.265829 32.63167 29.714247
2009-09-30 07:39:34 51°15.272 2°47.695 17.3211 4.265829 32.63167 29.714247
2009-09-30 07:39:39 51°15.27 2°47.671 17.3241 4.266037 32.633444 29.679423
2009-09-30 07:39:44 51°15.27 2°47.647 17.3208 4.26614 32.634976 29.714247
2009-09-30 07:39:49 51°15.268 2°47.622 17.3202 4.266244 32.635217 29.679423
2009-09-30 07:39:54 51°15.267 2°47.598 17.324 4.266452 32.636991 29.679423
2009-09-30 07:39:59 51°15.266 2°47.574 17.3194 4.266556 32.637877 29.679423
2009-09-30 07:40:04 51°15.265 2°47.549 17.3199 4.266556 32.637877 29.679423
2009-09-30 07:40:09 51°15.263 2°47.525 17.3204 4.266763 32.639651 29.679423
2009-09-30 07:40:14 51°15.263 2°47.501 17.3199 4.266867 32.639892 29.644599
2009-09-30 07:40:19 51°15.261 2°47.476 17.3205 4.266971 32.640779 29.644599
2009-09-30 07:40:24 51°15.261 2°47.452 17.3203 4.267074 32.642311 29.644599
2009-09-30 07:40:29 51°15.26 2°47.427 17.3205 4.267074 32.642311 29.644599
2009-09-30 07:40:34 51°15.259 2°47.403 17.3217 4.267178 32.643843 29.644599
2009-09-30 07:40:39 51°15.258 2°47.379 17.3218 4.267282 32.64473 29.609775
2009-09-30 07:40:44 51°15.257 2°47.354 17.3207 4.267282 32.645375 29.644599
2009-09-30 07:40:49 51°15.255 2°47.33 17.3229 4.267386 32.645617 29.609775
2009-09-30 07:40:54 51°15.254 2°47.305 17.322 4.267489 32.646503 29.609775
2009-09-30 07:40:59 51°15.253 2°47.281 17.3229 4.267489 32.646503 29.609775
2009-09-30 07:41:04 51°15.252 2°47.256 17.3216 4.267593 32.64739 29.609775
2009-09-30 07:41:09 51°15.251 2°47.232 17.3221 4.267801 32.649164 29.609775
2009-09-30 07:41:14 51°15.25 2°47.207 17.3211 4.267905 32.650051 29.609775
2009-09-30 07:41:19 51°15.249 2°47.183 17.3206 4.268008 32.650937 29.609775
2009-09-30 07:41:24 51°15.249 2°47.158 17.3221 4.268112 32.651179 29.609775
2009-09-30 07:41:29 51°15.248 2°47.134 17.32 4.268216 32.652066 29.574951
2009-09-30 07:41:34 51°15.247 2°47.109 17.3219 4.268216 32.652066 29.574951
2009-09-30 07:41:39 51°15.246 2°47.085 17.322 4.26832 32.652307 29.609775
2009-09-30 07:41:44 51°15.245 2°47.06 17.321 4.268423 32.653839 29.574951
2009-09-30 07:41:49 51°15.244 2°47.036 17.3227 4.268527 32.654726 29.574951
2009-09-30 07:41:54 51°15.244 2°47.012 17.3204 4.268631 32.655613 29.574951
2009-09-30 07:41:59 51°15.243 2°46.987 17.3226 4.268631 32.655613 29.574951
2009-09-30 07:42:04 51°15.242 2°46.963 17.3199 4.268735 32.6565 29.574951
2009-09-30 07:42:09 51°15.241 2°46.938 17.3201 4.268838 32.657386 29.574951
2009-09-30 07:42:14 51°15.24 2°46.914 17.3213 4.268942 32.658919 29.574951
2009-09-30 07:42:19 51°15.24 2°46.889 17.3204 4.268942 32.658273 29.574951
2009-09-30 07:42:24 51°15.239 2°46.865 17.3199 4.269046 32.65916 29.574951
2009-09-30 07:42:29 51°15.238 2°46.84 17.3197 4.269046 32.65916 29.574951
2009-09-30 07:42:34 51°15.237 2°46.816 17.3195 4.26915 32.660047 29.574951
2009-09-30 07:42:39 51°15.236 2°46.791 17.3222 4.269254 32.660934 29.574951
2009-09-30 07:42:44 51°15.235 2°46.767 17.321 4.269357 32.662466 29.540127
2009-09-30 07:42:49 51°15.234 2°46.743 17.3188 4.269357 32.661821 29.540127
2009-09-30 07:42:54 51°15.234 2°46.718 17.3193 4.269357 32.661821 29.505303
2009-09-30 07:42:59 51°15.233 2°46.694 17.3193 4.269565 32.66424 29.505303
2009-09-30 07:43:04 51°15.233 2°46.67 17.3197 4.269565 32.66424 29.505303
2009-09-30 07:43:09 51°15.232 2°46.645 17.3167 4.269565 32.66424 29.505303
2009-09-30 07:43:14 51°15.231 2°46.621 17.3157 4.269565 32.66424 29.505303
2009-09-30 07:43:19 51°15.23 2°46.596 17.3174 4.269669 32.665127 29.505303
2009-09-30 07:43:24 51°15.23 2°46.572 17.3182 4.269669 32.665127 29.505303
2009-09-30 07:43:29 51°15.228 2°46.547 17.3162 4.269669 32.665773 29.505303
2009-09-30 07:43:34 51°15.229 2°46.523 17.3148 4.269669 32.665773 29.505303
2009-09-30 07:43:39 51°15.228 2°46.498 17.3169 4.269772 32.66666 29.505303
2009-09-30 07:43:44 51°15.228 2°46.474 17.3159 4.269669 32.666419 29.470479
2009-09-30 07:43:49 51°15.227 2°46.449 17.3174 4.269669 32.667064 29.470479
2009-09-30 07:43:54 51°15.227 2°46.425 17.3143 4.269669 32.667064 29.470479
2009-09-30 07:43:59 51°15.225 2°46.4 17.315 4.269669 32.667064 29.470479
2009-09-30 07:44:04 51°15.225 2°46.376 17.314 4.269669 32.667064 29.435655
2009-09-30 07:44:09 51°15.224 2°46.351 17.3144 4.269669 32.667064 29.435655
2009-09-30 07:44:14 51°15.224 2°46.327 17.3135 4.269565 32.666823 29.435655
2009-09-30 07:44:19 51°15.223 2°46.302 17.3146 4.269565 32.667469 29.435655
2009-09-30 07:44:24 51°15.222 2°46.278 17.3124 4.269669 32.668356 29.435655
2009-09-30 07:44:29 51°15.221 2°46.254 17.3156 4.269565 32.667469 29.400831
2009-09-30 07:44:34 51°15.221 2°46.229 17.3129 4.269565 32.667469 29.400831
2009-09-30 07:44:39 51°15.219 2°46.205 17.3114 4.269565 32.668115 29.400831
2009-09-30 07:44:44 51°15.219 2°46.18 17.3107 4.269461 32.667874 29.400831
2009-09-30 07:44:49 51°15.218 2°46.156 17.3114 4.269461 32.667874 29.400831
2009-09-30 07:44:54 51°15.217 2°46.131 17.3101 4.269461 32.667874 29.366007
2009-09-30 07:44:59 51°15.216 2°46.107 17.3067 4.269461 32.66852 29.366007
2009-09-30 07:45:04 51°15.216 2°46.082 17.3047 4.269461 32.66852 29.366007
2009-09-30 07:45:09 51°15.215 2°46.058 17.3029 4.269357 32.667633 29.366007
2009-09-30 07:45:14 51°15.215 2°46.034 17.3011 4.269357 32.668279 29.366007
2009-09-30 07:45:19 51°15.214 2°46.009 17.3009 4.269357 32.668925 29.366007
2009-09-30 07:45:24 51°15.213 2°45.984 17.3017 4.269254 32.668684 29.366007
2009-09-30 07:45:29 51°15.213 2°45.96 17.2983 4.269254 32.669331 29.331183
2009-09-30 07:45:34 51°15.212 2°45.936 17.2989 4.269254 32.669331 29.331183
2009-09-30 07:45:39 51°15.211 2°45.911 17.2986 4.26915 32.669736 29.331183
2009-09-30 07:45:44 51°15.211 2°45.887 17.2976 4.268942 32.6699 29.331183
2009-09-30 07:45:49 51°15.21 2°45.862 17.2924 4.268839 32.670305 29.331183
2009-09-30 07:45:54 51°15.209 2°45.838 17.2939 4.268735 32.670064 29.331183
2009-09-30 07:45:59 51°15.209 2°45.813 17.2914 4.268735 32.670064 29.331183
2009-09-30 07:46:04 51°15.207 2°45.789 17.2928 4.268735 32.672003 29.296359
2009-09-30 07:46:09 51°15.207 2°45.765 17.2885 4.268631 32.671116 29.296359
2009-09-30 07:46:14 51°15.204 2°45.741 17.2899 4.268527 32.671521 29.296359
2009-09-30 07:46:19 51°15.204 2°45.717 17.2872 4.268527 32.672814 29.296359
2009-09-30 07:46:24 51°15.2 2°45.693 17.2889 4.268424 32.673219 29.296359
2009-09-30 07:46:29 51°15.198 2°45.669 17.2849 4.26832 32.672978 29.296359
2009-09-30 07:46:34 51°15.195 2°45.645 17.2867 4.26832 32.672978 29.296359
2009-09-30 07:46:39 51°15.192 2°45.621 17.2827 4.268216 32.673384 29.296359
2009-09-30 07:46:44 51°15.189 2°45.597 17.2844 4.268216 32.674677 29.261534
2009-09-30 07:46:49 51°15.186 2°45.573 17.2816 4.268113 32.675729 29.261534
2009-09-30 07:46:54 51°15.184 2°45.548 17.2837 4.268009 32.675488 29.261534
2009-09-30 07:46:59 51°15.18 2°45.525 17.282 4.268009 32.676782 29.296359
2009-09-30 07:47:04 51°15.178 2°45.5 17.2775 4.268009 32.676782 29.296359
2009-09-30 07:47:09 51°15.176 2°45.476 17.2791 4.268009 32.677428 29.261534
2009-09-30 07:47:14 51°15.173 2°45.452 17.279 4.268009 32.677428 29.261534
2009-09-30 07:47:19 51°15.171 2°45.428 17.2762 4.268009 32.678722 29.261534
2009-09-30 07:47:24 51°15.169 2°45.404 17.277 4.268009 32.679369 29.261534
2009-09-30 07:47:29 51°15.167 2°45.38 17.2778 4.268009 32.679369 29.261534
2009-09-30 07:47:34 51°15.164 2°45.356 17.2761 4.268113 32.680903 29.261534
2009-09-30 07:47:39 51°15.162 2°45.332 17.2787 4.268216 32.683084 29.296359
2009-09-30 07:47:44 51°15.16 2°45.308 17.2771 4.268216 32.683731 29.261534
2009-09-30 07:47:49 51°15.157 2°45.283 17.2763 4.268216 32.684378 29.261534
2009-09-30 07:47:54 51°15.156 2°45.259 17.2753 4.268216 32.685672 29.261534
2009-09-30 07:47:59 51°15.153 2°45.235 17.2767 4.268216 32.685672 29.261534
2009-09-30 07:48:04 51°15.151 2°45.211 17.2762 4.26832 32.68656 29.261534
2009-09-30 07:48:09 51°15.149 2°45.187 17.2747 4.268424 32.687448 29.261534
2009-09-30 07:48:14 51°15.147 2°45.163 17.2744 4.268424 32.688095 29.261534
2009-09-30 07:48:19 51°15.144 2°45.139 17.2742 4.268528 32.688982 29.261534
2009-09-30 07:48:24 51°15.143 2°45.115 17.2751 4.268528 32.68963 29.261534
2009-09-30 07:48:29 51°15.14 2°45.091 17.2765 4.268632 32.690517 29.261534
2009-09-30 07:48:34 51°15.138 2°45.067 17.2753 4.268632 32.690517 29.261534
2009-09-30 07:48:39 51°15.135 2°45.043 17.2761 4.268632 32.691165 29.261534
2009-09-30 07:48:44 51°15.134 2°45.018 17.2729 4.268735 32.692052 29.261534
2009-09-30 07:48:49 51°15.131 2°44.994 17.2745 4.268839 32.693587 29.261534
2009-09-30 07:48:54 51°15.129 2°44.97 17.2737 4.268839 32.694235 29.261534
2009-09-30 07:48:59 51°15.127 2°44.946 17.2739 4.268943 32.695122 29.261534
2009-09-30 07:49:04 51°15.125 2°44.922 17.2727 4.268943 32.695122 29.261534
2009-09-30 07:49:09 51°15.123 2°44.898 17.274 4.269047 32.695363 29.261534
2009-09-30 07:49:14 51°15.12 2°44.873 17.2701 4.26915 32.696251 29.261534
2009-09-30 07:49:19 51°15.118 2°44.849 17.2735 4.26915 32.696898 29.261534
2009-09-30 07:49:24 51°15.116 2°44.825 17.2722 4.26915 32.696898 29.261534
2009-09-30 07:49:29 51°15.114 2°44.801 17.27 4.26915 32.696898 29.261534
2009-09-30 07:49:34 51°15.112 2°44.776 17.272 4.26915 32.696898 29.261534
2009-09-30 07:49:39 51°15.11 2°44.752 17.2746 4.26915 32.697545 29.261534
2009-09-30 07:49:44 51°15.108 2°44.728 17.2694 4.26915 32.698193 29.261534
2009-09-30 07:49:49 51°15.106 2°44.704 17.2722 4.269047 32.697305 29.296359
2009-09-30 07:49:54 51°15.104 2°44.68 17.2707 4.269047 32.697952 29.296359
2009-09-30 07:49:59 51°15.102 2°44.656 17.2709 4.269047 32.6986 29.261534
2009-09-30 07:50:04 51°15.1 2°44.632 17.2714 4.269047 32.6986 29.261534
2009-09-30 07:50:09 51°15.097 2°44.608 17.2715 4.269047 32.6986 29.261534
2009-09-30 07:50:14 51°15.095 2°44.584 17.2716 4.269047 32.6986 29.261534
2009-09-30 07:50:19 51°15.093 2°44.56 17.276 4.269047 32.699247 29.296359
2009-09-30 07:50:24 51°15.091 2°44.536 17.2712 4.269047 32.699247 29.296359
2009-09-30 07:50:29 51°15.089 2°44.512 17.2722 4.26915 32.700135 29.296359
2009-09-30 07:50:34 51°15.087 2°44.488 17.2708 4.26915 32.700135 29.296359
2009-09-30 07:50:39 51°15.086 2°44.463 17.272 4.26915 32.700135 29.296359
2009-09-30 07:50:44 51°15.083 2°44.439 17.2728 4.269358 32.701911 29.296359
2009-09-30 07:50:49 51°15.081 2°44.415 17.273 4.269462 32.702151 29.296359
2009-09-30 07:50:54 51°15.08 2°44.391 17.2739 4.269566 32.703039 29.296359
2009-09-30 07:50:59 51°15.077 2°44.367 17.2707 4.269669 32.703927 29.296359
2009-09-30 07:51:04 51°15.075 2°44.343 17.2727 4.269669 32.703927 29.296359
2009-09-30 07:51:09 51°15.073 2°44.319 17.2742 4.269773 32.704168 29.296359
2009-09-30 07:51:14 51°15.071 2°44.295 17.2741 4.269877 32.705703 29.296359
2009-09-30 07:51:19 51°15.069 2°44.271 17.2725 4.269981 32.706591 29.296359
2009-09-30 07:51:24 51°15.067 2°44.247 17.2719 4.270188 32.707719 29.296359
2009-09-30 07:51:29 51°15.065 2°44.223 17.2748 4.270188 32.707719 29.296359
2009-09-30 07:51:34 51°15.062 2°44.199 17.2744 4.270292 32.708607 29.296359
2009-09-30 07:51:39 51°15.06 2°44.174 17.2744 4.270396 32.710143 29.296359
2009-09-30 07:51:44 51°15.058 2°44.15 17.2755 4.270499 32.710383 29.296359
2009-09-30 07:51:49 51°15.057 2°44.126 17.275 4.270603 32.711271 29.296359
2009-09-30 07:51:54 51°15.054 2°44.101 17.2752 4.270811 32.713047 29.296359
2009-09-30 07:51:59 51°15.053 2°44.077 17.2745 4.270915 32.713935 29.331183
2009-09-30 07:52:04 51°15.051 2°44.053 17.2762 4.270915 32.713935 29.331183
2009-09-30 07:52:09 51°15.049 2°44.028 17.2743 4.271018 32.714175 29.331183
2009-09-30 07:52:14 51°15.047 2°44.004 17.2781 4.271122 32.715063 29.331183
2009-09-30 07:52:19 51°15.045 2°43.98 17.2766 4.271122 32.715063 29.331183
2009-09-30 07:52:24 51°15.043 2°43.956 17.2784 4.271226 32.715304 29.331183
2009-09-30 07:52:29 51°15.041 2°43.932 17.2765 4.271226 32.715304 29.331183
2009-09-30 07:52:34 51°15.038 2°43.908 17.2771 4.271226 32.715304 29.331183
2009-09-30 07:52:39 51°15.036 2°43.884 17.2786 4.27133 32.716192 29.331183
2009-09-30 07:52:44 51°15.034 2°43.859 17.2797 4.27133 32.715544 29.331183
2009-09-30 07:52:49 51°15.032 2°43.835 17.2794 4.271433 32.716432 29.331183
2009-09-30 07:52:54 51°15.03 2°43.811 17.2803 4.271433 32.715784 29.331183
2009-09-30 07:52:59 51°15.028 2°43.787 17.2804 4.271433 32.715784 29.331183
2009-09-30 07:53:04 51°15.025 2°43.763 17.2811 4.271537 32.716672 29.331183
2009-09-30 07:53:09 51°15.023 2°43.739 17.2808 4.271537 32.716024 29.331183
2009-09-30 07:53:14 51°15.021 2°43.715 17.2823 4.271641 32.716912 29.366007
2009-09-30 07:53:19 51°15.018 2°43.691 17.282 4.271641 32.716264 29.331183
2009-09-30 07:53:24 51°15.016 2°43.667 17.286 4.271745 32.716505 29.366007
2009-09-30 07:53:29 51°15.014 2°43.643 17.2835 4.271745 32.716505 29.366007
2009-09-30 07:53:34 51°15.012 2°43.619 17.2844 4.271745 32.716505 29.366007
2009-09-30 07:53:39 51°15.01 2°43.594 17.2881 4.271848 32.716745 29.331183
2009-09-30 07:53:44 51°15.008 2°43.57 17.2847 4.271952 32.717633 29.366007
2009-09-30 07:53:49 51°15.006 2°43.546 17.2886 4.272056 32.717873 29.366007
2009-09-30 07:53:54 51°15.003 2°43.522 17.287 4.272056 32.717225 29.366007
2009-09-30 07:53:59 51°15.001 2°43.498 17.2868 4.27216 32.717466 29.366007
2009-09-30 07:54:04 51°14.999 2°43.474 17.2878 4.27216 32.717466 29.366007
2009-09-30 07:54:09 51°14.997 2°43.45 17.2904 4.272263 32.717706 29.366007
2009-09-30 07:54:14 51°14.995 2°43.426 17.29 4.272367 32.717298 29.366007
2009-09-30 07:54:19 51°14.992 2°43.402 17.2903 4.272471 32.718186 29.366007
2009-09-30 07:54:24 51°14.99 2°43.378 17.2883 4.272575 32.718426 29.366007
2009-09-30 07:54:29 51°14.988 2°43.354 17.2909 4.272575 32.718426 29.366007
2009-09-30 07:54:34 51°14.986 2°43.33 17.2958 4.272679 32.718667 29.366007
2009-09-30 07:54:39 51°14.984 2°43.306 17.296 4.272782 32.719554 29.366007
2009-09-30 07:54:44 51°14.981 2°43.283 17.2939 4.272886 32.719794 29.366007
2009-09-30 07:54:49 51°14.98 2°43.258 17.2949 4.27299 32.720035 29.366007
2009-09-30 07:54:54 51°14.978 2°43.234 17.2966 4.273094 32.720922 29.366007
2009-09-30 07:54:59 51°14.976 2°43.21 17.2964 4.273094 32.720922 29.366007
2009-09-30 07:55:04 51°14.974 2°43.186 17.2974 4.273197 32.721162 29.366007
2009-09-30 07:55:09 51°14.972 2°43.162 17.2979 4.273301 32.720755 29.366007
2009-09-30 07:55:14 51°14.97 2°43.139 17.2992 4.273509 32.720588 29.366007
2009-09-30 07:55:19 51°14.967 2°43.115 17.2987 4.273612 32.720828 29.366007
2009-09-30 07:55:24 51°14.961 2°43.094 17.2991 4.27382 32.721956 29.366007
2009-09-30 07:55:29 51°14.955 2°43.073 17.3021 4.273924 32.722196 29.366007
2009-09-30 07:55:34 51°14.947 2°43.052 17.3051 4.273924 32.722196 29.366007
2009-09-30 07:55:39 51°14.941 2°43.031 17.3021 4.273924 32.722196 29.366007
2009-09-30 07:55:44 51°14.932 2°43.011 17.3039 4.274131 32.723324 29.366007
2009-09-30 07:55:49 51°14.925 2°42.991 17.3038 4.274131 32.723324 29.366007
2009-09-30 07:55:54 51°14.915 2°42.973 17.3049 4.274235 32.724211 29.400831
2009-09-30 07:55:59 51°14.905 2°42.955 17.3077 4.274339 32.723804 29.366007
2009-09-30 07:56:04 51°14.895 2°42.937 17.3071 4.274339 32.723804 29.366007